Time,TemperatureF,DewpointF,PressureIn,WindDirection,WindDirectionDegrees,WindSpeedMPH,WindSpeedGustMPH,Humidity,HourlyPrecipIn,Conditions,Clouds,dailyrainin,SoftwareType,DateUTC
2013-11-30 00:00:00,35.7,23.6,30.72,East,84,3.0,3.0,61,0.00,,,0.01,Wunderground v.1.15,2013-11-30 05:00:00,
2013-11-30 00:01:00,35.7,23.9,30.72,East,84,3.0,3.0,62,0.00,,,0.00,Wunderground v.1.15,2013-11-30 05:01:00,
2013-11-30 00:02:00,35.6,23.9,30.72,ENE,78,2.0,5.0,62,0.00,,,0.00,Wunderground v.1.15,2013-11-30 05:02:00,
2013-11-30 00:04:00,35.6,23.9,30.72,ENE,76,3.0,5.0,62,0.00,,,0.00,Wunderground v.1.15,2013-11-30 05:04:00,
2013-11-30 00:06:00,35.7,23.6,30.72,East,82,3.0,5.0,61,0.00,,,0.00,Wunderground v.1.15,2013-11-30 05:06:00,
2013-11-30 00:07:00,35.7,23.6,30.72,East,82,3.0,5.0,61,0.00,,,0.00,Wunderground v.1.15,2013-11-30 05:07:00,
2013-11-30 00:08:00,35.7,23.6,30.72,East,82,3.0,5.0,61,0.00,,,0.00,Wunderground v.1.15,2013-11-30 05:08:00,
2013-11-30 00:09:00,35.7,23.6,30.72,East,82,3.0,5.0,61,0.00,,,0.00,Wunderground v.1.15,2013-11-30 05:09:00,
2013-11-30 00:11:00,35.7,23.6,30.72,ENE,72,3.0,4.0,61,0.00,,,0.00,Wunderground v.1.15,2013-11-30 05:11:00,
2013-11-30 00:12:00,35.8,23.7,30.72,ENE,72,3.0,4.0,61,0.00,,,0.00,Wunderground v.1.15,2013-11-30 05:12:00,
2013-11-30 00:13:00,35.8,23.7,30.72,ENE,72,3.0,4.0,61,0.00,,,0.00,Wunderground v.1.15,2013-11-30 05:13:00,
2013-11-30 00:14:00,35.8,23.7,30.72,ENE,78,3.0,4.0,61,0.00,,,0.00,Wunderground v.1.15,2013-11-30 05:14:00,
2013-11-30 00:16:00,35.6,23.9,30.72,ENE,66,2.0,6.0,62,0.00,,,0.00,Wunderground v.1.15,2013-11-30 05:16:00,
2013-11-30 00:19:00,35.3,24.0,30.72,ENE,65,3.0,6.0,63,0.00,,,0.00,Wunderground v.1.15,2013-11-30 05:19:00,
2013-11-30 00:21:00,35.1,24.1,30.72,ENE,65,3.0,3.0,64,0.00,,,0.00,Wunderground v.1.15,2013-11-30 05:21:00,
2013-11-30 00:22:00,35.0,24.0,30.72,ENE,65,3.0,4.0,64,0.00,,,0.00,Wunderground v.1.15,2013-11-30 05:22:00,
2013-11-30 00:25:00,34.6,24.0,30.72,ENE,61,3.0,5.0,65,0.00,,,0.00,Wunderground v.1.15,2013-11-30 05:25:00,
2013-11-30 00:27:00,34.3,24.1,30.72,ENE,67,3.0,6.0,66,0.00,,,0.00,Wunderground v.1.15,2013-11-30 05:27:00,
2013-11-30 00:29:00,34.0,24.2,30.72,ENE,67,3.0,6.0,67,0.00,,,0.00,Wunderground v.1.15,2013-11-30 05:29:00,
2013-11-30 00:32:00,33.6,24.2,30.72,NE,48,4.0,8.0,68,0.00,,,0.00,Wunderground v.1.15,2013-11-30 05:32:00,
2013-11-30 00:33:00,33.5,24.1,30.72,NE,48,4.0,8.0,68,0.00,,,0.00,Wunderground v.1.15,2013-11-30 05:33:00,
2013-11-30 00:35:00,33.4,24.3,30.72,NE,48,4.0,8.0,69,0.00,,,0.00,Wunderground v.1.15,2013-11-30 05:35:00,
2013-11-30 00:36:00,33.3,24.2,30.72,NE,42,4.0,8.0,69,0.00,,,0.00,Wunderground v.1.15,2013-11-30 05:36:00,
2013-11-30 00:38:00,33.1,24.0,30.72,NE,41,4.0,8.0,69,0.00,,,0.00,Wunderground v.1.15,2013-11-30 05:38:00,
2013-11-30 00:39:00,33.0,24.3,30.72,NE,56,4.0,8.0,70,0.00,,,0.00,Wunderground v.1.15,2013-11-30 05:39:00,
2013-11-30 00:40:00,33.0,24.3,30.72,NE,48,4.0,8.0,70,0.00,,,0.00,Wunderground v.1.15,2013-11-30 05:40:00,
2013-11-30 00:41:00,33.0,24.3,30.72,NE,41,4.0,8.0,70,0.00,,,0.00,Wunderground v.1.15,2013-11-30 05:41:00,
2013-11-30 00:44:00,32.8,24.1,30.72,NNE,33,4.0,8.0,70,0.00,,,0.00,Wunderground v.1.15,2013-11-30 05:44:00,
2013-11-30 00:46:00,32.8,24.1,30.72,NE,38,4.0,8.0,70,0.00,,,0.00,Wunderground v.1.15,2013-11-30 05:46:00,
2013-11-30 00:49:00,32.7,24.0,30.72,NE,54,4.0,8.0,70,0.00,,,0.00,Wunderground v.1.15,2013-11-30 05:49:00,
2013-11-30 00:50:00,32.7,24.3,30.72,NE,54,4.0,4.0,71,0.00,,,0.00,Wunderground v.1.15,2013-11-30 05:50:00,
2013-11-30 00:51:00,32.6,24.2,30.72,NE,38,4.0,5.0,71,0.00,,,0.00,Wunderground v.1.15,2013-11-30 05:51:00,
2013-11-30 00:55:00,32.5,24.1,30.72,NE,51,4.0,8.0,71,0.00,,,0.00,Wunderground v.1.15,2013-11-30 05:55:00,
2013-11-30 00:56:00,32.5,24.1,30.72,NE,39,4.0,8.0,71,0.00,,,0.00,Wunderground v.1.15,2013-11-30 05:56:00,
2013-11-30 00:57:00,32.4,24.0,30.72,NE,39,5.0,8.0,71,0.00,,,0.00,Wunderground v.1.15,2013-11-30 05:57:00,
2013-11-30 00:58:00,32.4,24.0,30.72,ENE,61,5.0,8.0,71,0.00,,,0.00,Wunderground v.1.15,2013-11-30 05:58:00,
2013-11-30 00:59:00,32.3,23.9,30.72,ENE,61,5.0,8.0,71,0.00,,,0.00,Wunderground v.1.15,2013-11-30 05:59:00,
2013-11-30 01:01:00,32.2,24.2,30.72,NE,47,5.0,8.0,72,0.00,,,0.00,Wunderground v.1.15,2013-11-30 06:01:00,
2013-11-30 01:02:00,32.2,24.2,30.72,ENE,60,5.0,8.0,72,0.00,,,0.00,Wunderground v.1.15,2013-11-30 06:02:00,
2013-11-30 01:04:00,32.0,24.0,30.72,ENE,59,5.0,8.0,72,0.00,,,0.00,Wunderground v.1.15,2013-11-30 06:04:00,
2013-11-30 01:05:00,32.0,24.0,30.72,ENE,59,5.0,8.0,72,0.00,,,0.00,Wunderground v.1.15,2013-11-30 06:05:00,
2013-11-30 01:06:00,31.9,23.9,30.72,ENE,61,5.0,8.0,72,0.00,,,0.00,Wunderground v.1.15,2013-11-30 06:06:00,
2013-11-30 01:11:00,31.7,24.0,30.72,NE,51,4.0,8.0,73,0.00,,,0.00,Wunderground v.1.15,2013-11-30 06:11:00,
2013-11-30 01:12:00,31.6,23.9,30.72,NE,50,4.0,8.0,73,0.00,,,0.00,Wunderground v.1.15,2013-11-30 06:12:00,
2013-11-30 01:16:00,31.5,23.8,30.72,ENE,58,4.0,8.0,73,0.00,,,0.00,Wunderground v.1.15,2013-11-30 06:16:00,
2013-11-30 01:17:00,31.4,23.7,30.72,ENE,57,4.0,8.0,73,0.00,,,0.00,Wunderground v.1.15,2013-11-30 06:17:00,
2013-11-30 01:18:00,31.4,23.7,30.72,ENE,59,4.0,8.0,73,0.00,,,0.00,Wunderground v.1.15,2013-11-30 06:18:00,
2013-11-30 01:19:00,31.4,23.7,30.72,ENE,60,4.0,8.0,73,0.00,,,0.00,Wunderground v.1.15,2013-11-30 06:19:00,
2013-11-30 01:20:00,31.4,23.7,30.72,NE,51,4.0,8.0,73,0.00,,,0.00,Wunderground v.1.15,2013-11-30 06:20:00,
2013-11-30 01:23:00,31.4,23.7,30.72,ENE,65,4.0,8.0,73,0.00,,,0.00,Wunderground v.1.15,2013-11-30 06:23:00,
2013-11-30 01:24:00,31.4,23.7,30.72,ENE,65,4.0,8.0,73,0.00,,,0.00,Wunderground v.1.15,2013-11-30 06:24:00,
2013-11-30 01:28:00,31.2,23.5,30.72,NE,44,4.0,8.0,73,0.00,,,0.00,Wunderground v.1.15,2013-11-30 06:28:00,
2013-11-30 01:29:00,31.2,23.9,30.72,NE,44,3.0,8.0,74,0.00,,,0.00,Wunderground v.1.15,2013-11-30 06:29:00,
2013-11-30 01:33:00,31.2,23.9,30.72,NE,54,3.0,8.0,74,0.00,,,0.00,Wunderground v.1.15,2013-11-30 06:33:00,
2013-11-30 01:34:00,31.2,23.9,30.72,NE,54,3.0,8.0,74,0.00,,,0.00,Wunderground v.1.15,2013-11-30 06:34:00,
2013-11-30 01:36:00,31.3,23.6,30.72,ENE,63,3.0,8.0,73,0.00,,,0.00,Wunderground v.1.15,2013-11-30 06:36:00,
2013-11-30 01:39:00,31.3,23.6,30.72,ENE,63,3.0,8.0,73,0.00,,,0.00,Wunderground v.1.15,2013-11-30 06:39:00,
2013-11-30 01:40:00,31.2,23.5,30.72,ENE,63,3.0,3.0,73,0.00,,,0.00,Wunderground v.1.15,2013-11-30 06:40:00,
2013-11-30 01:41:00,31.3,23.6,30.72,ENE,63,2.0,8.0,73,0.00,,,0.00,Wunderground v.1.15,2013-11-30 06:41:00,
2013-11-30 01:43:00,31.2,23.5,30.72,ENE,63,2.0,8.0,73,0.00,,,0.00,Wunderground v.1.15,2013-11-30 06:43:00,
2013-11-30 01:47:00,31.0,23.4,30.72,ENE,70,1.0,8.0,73,0.00,,,0.00,Wunderground v.1.15,2013-11-30 06:47:00,
2013-11-30 01:48:00,30.9,23.3,30.72,ENE,70,1.0,8.0,73,0.00,,,0.00,Wunderground v.1.15,2013-11-30 06:48:00,
2013-11-30 01:49:00,30.8,23.2,30.72,ENE,70,1.0,8.0,73,0.00,,,0.00,Wunderground v.1.15,2013-11-30 06:49:00,
2013-11-30 01:51:00,30.7,23.4,30.72,ENE,64,2.0,8.0,74,0.00,,,0.00,Wunderground v.1.15,2013-11-30 06:51:00,
2013-11-30 01:52:00,30.7,23.4,30.72,ENE,64,2.0,8.0,74,0.00,,,0.00,Wunderground v.1.15,2013-11-30 06:52:00,
2013-11-30 01:54:00,30.7,23.4,30.72,ENE,64,1.0,8.0,74,0.00,,,0.00,Wunderground v.1.15,2013-11-30 06:54:00,
2013-11-30 01:55:00,30.6,23.3,30.72,ENE,64,1.0,8.0,74,0.00,,,0.00,Wunderground v.1.15,2013-11-30 06:55:00,
2013-11-30 01:59:00,30.5,23.5,30.72,ENE,64,1.0,8.0,75,0.00,,,0.00,Wunderground v.1.15,2013-11-30 06:59:00,
2013-11-30 02:00:00,30.5,23.5,30.72,ENE,64,1.0,8.0,75,0.00,,,0.00,Wunderground v.1.15,2013-11-30 07:00:00,
2013-11-30 02:01:00,30.5,23.5,30.72,ENE,63,1.0,8.0,75,0.00,,,0.00,Wunderground v.1.15,2013-11-30 07:01:00,
2013-11-30 02:05:00,30.7,23.4,30.72,NE,38,2.0,8.0,74,0.00,,,0.00,Wunderground v.1.15,2013-11-30 07:05:00,
2013-11-30 02:06:00,30.7,23.4,30.72,NE,38,2.0,8.0,74,0.00,,,0.00,Wunderground v.1.15,2013-11-30 07:06:00,
2013-11-30 02:07:00,30.7,23.4,30.72,NE,47,2.0,8.0,74,0.00,,,0.00,Wunderground v.1.15,2013-11-30 07:07:00,
2013-11-30 02:08:00,30.7,23.4,30.72,NE,48,2.0,8.0,74,0.00,,,0.00,Wunderground v.1.15,2013-11-30 07:08:00,
2013-11-30 02:09:00,30.7,23.4,30.72,NE,48,2.0,8.0,74,0.00,,,0.00,Wunderground v.1.15,2013-11-30 07:09:00,
2013-11-30 02:13:00,30.5,23.2,30.72,NE,48,2.0,8.0,74,0.00,,,0.00,Wunderground v.1.15,2013-11-30 07:13:00,
2013-11-30 02:14:00,30.5,23.2,30.72,NE,48,2.0,8.0,74,0.00,,,0.00,Wunderground v.1.15,2013-11-30 07:14:00,
2013-11-30 02:15:00,30.5,23.5,30.72,NE,48,2.0,8.0,75,0.00,,,0.00,Wunderground v.1.15,2013-11-30 07:15:00,
2013-11-30 02:16:00,30.4,23.4,30.72,NE,48,2.0,8.0,75,0.00,,,0.00,Wunderground v.1.15,2013-11-30 07:16:00,
2013-11-30 02:17:00,30.4,23.4,30.72,NE,48,2.0,8.0,75,0.00,,,0.00,Wunderground v.1.15,2013-11-30 07:17:00,
2013-11-30 02:18:00,30.4,23.4,30.72,NE,48,2.0,8.0,75,0.00,,,0.00,Wunderground v.1.15,2013-11-30 07:18:00,
2013-11-30 02:20:00,30.4,23.4,30.73,NE,46,2.0,8.0,75,0.00,,,0.00,Wunderground v.1.15,2013-11-30 07:20:00,
2013-11-30 02:21:00,30.4,23.4,30.73,NE,45,2.0,8.0,75,0.00,,,0.00,Wunderground v.1.15,2013-11-30 07:21:00,
2013-11-30 02:22:00,30.4,23.4,30.73,NE,45,2.0,8.0,75,0.00,,,0.00,Wunderground v.1.15,2013-11-30 07:22:00,
2013-11-30 02:24:00,30.3,23.3,30.72,NE,46,2.0,8.0,75,0.00,,,0.00,Wunderground v.1.15,2013-11-30 07:24:00,
2013-11-30 02:25:00,30.3,23.3,30.72,NE,46,2.0,8.0,75,0.00,,,0.00,Wunderground v.1.15,2013-11-30 07:25:00,
2013-11-30 02:27:00,30.3,23.3,30.72,NE,46,2.0,8.0,75,0.00,,,0.00,Wunderground v.1.15,2013-11-30 07:27:00,
2013-11-30 02:28:00,30.3,23.3,30.72,NE,46,2.0,8.0,75,0.00,,,0.00,Wunderground v.1.15,2013-11-30 07:28:00,
2013-11-30 02:29:00,30.2,23.2,30.72,NE,46,2.0,8.0,75,0.00,,,0.00,Wunderground v.1.15,2013-11-30 07:29:00,
2013-11-30 02:30:00,30.2,23.2,30.72,NE,46,2.0,8.0,75,0.00,,,0.00,Wunderground v.1.15,2013-11-30 07:30:00,
2013-11-30 02:32:00,30.1,23.1,30.72,NE,46,2.0,8.0,75,0.00,,,0.00,Wunderground v.1.15,2013-11-30 07:32:00,
2013-11-30 02:36:00,29.9,23.3,30.72,NE,53,2.0,8.0,76,0.00,,,0.00,Wunderground v.1.15,2013-11-30 07:36:00,
2013-11-30 02:37:00,29.8,23.2,30.72,NE,53,2.0,8.0,76,0.00,,,0.00,Wunderground v.1.15,2013-11-30 07:37:00,
2013-11-30 02:38:00,29.8,23.2,30.72,NE,53,2.0,8.0,76,0.00,,,0.00,Wunderground v.1.15,2013-11-30 07:38:00,
2013-11-30 02:41:00,29.7,23.1,30.72,NE,53,2.0,8.0,76,0.00,,,0.00,Wunderground v.1.15,2013-11-30 07:41:00,
2013-11-30 02:42:00,29.7,23.1,30.72,NE,54,2.0,8.0,76,0.00,,,0.00,Wunderground v.1.15,2013-11-30 07:42:00,
2013-11-30 02:43:00,29.7,23.1,30.71,NE,54,3.0,8.0,76,0.00,,,0.00,Wunderground v.1.15,2013-11-30 07:43:00,
2013-11-30 02:44:00,29.7,23.1,30.71,NE,49,3.0,8.0,76,0.00,,,0.00,Wunderground v.1.15,2013-11-30 07:44:00,
2013-11-30 02:45:00,29.7,23.1,30.71,NE,45,3.0,8.0,76,0.00,,,0.00,Wunderground v.1.15,2013-11-30 07:45:00,
2013-11-30 02:47:00,29.8,23.2,30.71,ENE,59,3.0,8.0,76,0.00,,,0.00,Wunderground v.1.15,2013-11-30 07:47:00,
2013-11-30 02:50:00,29.7,23.1,30.71,NE,47,3.0,8.0,76,0.00,,,0.00,Wunderground v.1.15,2013-11-30 07:50:00,
2013-11-30 02:51:00,29.7,23.1,30.71,NE,43,3.0,8.0,76,0.00,,,0.00,Wunderground v.1.15,2013-11-30 07:51:00,
2013-11-30 02:53:00,29.7,23.1,30.72,NE,40,3.0,8.0,76,0.00,,,0.00,Wunderground v.1.15,2013-11-30 07:53:00,
2013-11-30 02:56:00,29.7,23.1,30.71,NE,42,3.0,8.0,76,0.00,,,0.00,Wunderground v.1.15,2013-11-30 07:56:00,
2013-11-30 02:57:00,29.7,23.1,30.71,NE,39,3.0,8.0,76,0.00,,,0.00,Wunderground v.1.15,2013-11-30 07:57:00,
2013-11-30 02:58:00,29.7,23.1,30.71,NE,39,2.0,8.0,76,0.00,,,0.00,Wunderground v.1.15,2013-11-30 07:58:00,
2013-11-30 03:00:00,29.8,23.2,30.71,NE,36,2.0,2.0,76,0.00,,,0.00,Wunderground v.1.15,2013-11-30 08:00:00,
2013-11-30 03:01:00,29.8,23.2,30.71,NNE,30,2.0,4.0,76,0.00,,,0.00,Wunderground v.1.15,2013-11-30 08:01:00,
2013-11-30 03:02:00,29.8,22.8,30.71,NNE,31,2.0,8.0,75,0.00,,,0.00,Wunderground v.1.15,2013-11-30 08:02:00,
2013-11-30 03:04:00,29.7,22.7,30.71,NNE,32,2.0,8.0,75,0.00,,,0.00,Wunderground v.1.15,2013-11-30 08:04:00,
2013-11-30 03:07:00,29.5,22.9,30.71,NNE,32,1.0,8.0,76,0.00,,,0.00,Wunderground v.1.15,2013-11-30 08:07:00,
2013-11-30 03:08:00,29.4,22.8,30.71,ENE,58,1.0,8.0,76,0.00,,,0.00,Wunderground v.1.15,2013-11-30 08:08:00,
2013-11-30 03:09:00,29.3,23.0,30.71,ENE,58,1.0,8.0,77,0.00,,,0.00,Wunderground v.1.15,2013-11-30 08:09:00,
2013-11-30 03:10:00,29.2,22.9,30.71,ENE,59,1.0,1.0,77,0.00,,,0.00,Wunderground v.1.15,2013-11-30 08:10:00,
2013-11-30 03:13:00,28.9,22.6,30.71,NE,46,1.0,8.0,77,0.00,,,0.00,Wunderground v.1.15,2013-11-30 08:13:00,
2013-11-30 03:15:00,28.9,22.6,30.71,NE,51,1.0,8.0,77,0.00,,,0.00,Wunderground v.1.15,2013-11-30 08:15:00,
2013-11-30 03:16:00,28.9,22.6,30.71,NE,53,1.0,8.0,77,0.00,,,0.00,Wunderground v.1.15,2013-11-30 08:16:00,
2013-11-30 03:18:00,29.0,22.7,30.71,NE,53,2.0,8.0,77,0.00,,,0.00,Wunderground v.1.15,2013-11-30 08:18:00,
2013-11-30 03:20:00,29.0,22.7,30.71,NE,53,2.0,2.0,77,0.00,,,0.00,Wunderground v.1.15,2013-11-30 08:20:00,
2013-11-30 03:21:00,28.9,22.6,30.71,NE,53,2.0,8.0,77,0.00,,,0.00,Wunderground v.1.15,2013-11-30 08:21:00,
2013-11-30 03:22:00,28.8,22.5,30.71,NE,53,2.0,8.0,77,0.00,,,0.00,Wunderground v.1.15,2013-11-30 08:22:00,
2013-11-30 03:23:00,28.7,22.7,30.71,NE,53,2.0,8.0,78,0.00,,,0.00,Wunderground v.1.15,2013-11-30 08:23:00,
2013-11-30 03:25:00,28.4,22.4,30.71,NE,53,2.0,8.0,78,0.00,,,0.00,Wunderground v.1.15,2013-11-30 08:25:00,
2013-11-30 03:26:00,28.4,22.4,30.71,NE,53,2.0,8.0,78,0.00,,,0.00,Wunderground v.1.15,2013-11-30 08:26:00,
2013-11-30 03:27:00,28.3,22.3,30.71,NE,53,1.0,8.0,78,0.00,,,0.00,Wunderground v.1.15,2013-11-30 08:27:00,
2013-11-30 03:30:00,28.2,22.5,30.71,NE,53,1.0,1.0,79,0.00,,,0.00,Wunderground v.1.15,2013-11-30 08:30:00,
2013-11-30 03:32:00,28.2,22.5,30.72,NE,53,1.0,8.0,79,0.00,,,0.00,Wunderground v.1.15,2013-11-30 08:32:00,
2013-11-30 03:33:00,28.1,22.4,30.72,NE,53,1.0,8.0,79,0.00,,,0.00,Wunderground v.1.15,2013-11-30 08:33:00,
2013-11-30 03:34:00,28.1,22.4,30.72,NE,53,1.0,8.0,79,0.00,,,0.00,Wunderground v.1.15,2013-11-30 08:34:00,
2013-11-30 03:38:00,28.0,22.3,30.71,NE,53,1.0,8.0,79,0.00,,,0.00,Wunderground v.1.15,2013-11-30 08:38:00,
2013-11-30 03:39:00,28.0,22.3,30.71,NE,53,1.0,8.0,79,0.00,,,0.00,Wunderground v.1.15,2013-11-30 08:39:00,
2013-11-30 03:40:00,28.0,22.6,30.71,NE,53,1.0,8.0,80,0.00,,,0.00,Wunderground v.1.15,2013-11-30 08:40:00,
2013-11-30 03:42:00,28.0,22.6,30.71,ENE,58,1.0,8.0,80,0.00,,,0.00,Wunderground v.1.15,2013-11-30 08:42:00,
2013-11-30 03:43:00,27.9,22.2,30.71,ENE,58,1.0,8.0,79,0.00,,,0.00,Wunderground v.1.15,2013-11-30 08:43:00,
2013-11-30 03:45:00,27.7,22.3,30.71,ENE,58,1.0,8.0,80,0.00,,,0.00,Wunderground v.1.15,2013-11-30 08:45:00,
2013-11-30 03:46:00,27.6,22.2,30.71,ENE,58,1.0,8.0,80,0.00,,,0.00,Wunderground v.1.15,2013-11-30 08:46:00,
2013-11-30 03:49:00,27.3,22.2,30.71,ENE,58,2.0,8.0,81,0.00,,,0.00,Wunderground v.1.15,2013-11-30 08:49:00,
2013-11-30 03:50:00,27.2,22.1,30.71,ENE,58,2.0,8.0,81,0.00,,,0.00,Wunderground v.1.15,2013-11-30 08:50:00,
2013-11-30 03:52:00,27.4,22.3,30.71,ENE,58,2.0,8.0,81,0.00,,,0.00,Wunderground v.1.15,2013-11-30 08:52:00,
2013-11-30 03:53:00,27.5,22.4,30.71,ENE,58,2.0,8.0,81,0.00,,,0.00,Wunderground v.1.15,2013-11-30 08:53:00,
2013-11-30 03:54:00,27.6,22.5,30.71,ENE,58,2.0,8.0,81,0.00,,,0.00,Wunderground v.1.15,2013-11-30 08:54:00,
2013-11-30 03:55:00,27.7,22.6,30.71,ENE,58,2.0,8.0,81,0.00,,,0.00,Wunderground v.1.15,2013-11-30 08:55:00,
2013-11-30 03:56:00,27.8,22.4,30.71,ENE,58,1.0,8.0,80,0.00,,,0.00,Wunderground v.1.15,2013-11-30 08:56:00,
2013-11-30 04:00:00,27.9,22.5,30.71,ENE,58,1.0,8.0,80,0.00,,,0.00,Wunderground v.1.15,2013-11-30 09:00:00,
2013-11-30 04:01:00,27.9,22.5,30.71,ENE,58,1.0,8.0,80,0.00,,,0.00,Wunderground v.1.15,2013-11-30 09:01:00,
2013-11-30 04:02:00,28.0,22.6,30.71,ENE,58,1.0,8.0,80,0.00,,,0.00,Wunderground v.1.15,2013-11-30 09:02:00,
2013-11-30 04:05:00,28.0,22.3,30.71,ENE,58,1.0,8.0,79,0.00,,,0.00,Wunderground v.1.15,2013-11-30 09:05:00,
2013-11-30 04:06:00,28.1,22.4,30.71,ENE,58,2.0,8.0,79,0.00,,,0.00,Wunderground v.1.15,2013-11-30 09:06:00,
2013-11-30 04:07:00,28.1,22.4,30.71,ENE,58,2.0,8.0,79,0.00,,,0.00,Wunderground v.1.15,2013-11-30 09:07:00,
2013-11-30 04:09:00,28.2,22.5,30.71,ENE,58,2.0,8.0,79,0.00,,,0.00,Wunderground v.1.15,2013-11-30 09:09:00,
2013-11-30 04:10:00,28.2,22.5,30.71,ENE,58,2.0,8.0,79,0.00,,,0.00,Wunderground v.1.15,2013-11-30 09:10:00,
2013-11-30 04:12:00,28.2,22.5,30.71,ENE,57,2.0,8.0,79,0.00,,,0.00,Wunderground v.1.15,2013-11-30 09:12:00,
2013-11-30 04:13:00,28.3,22.6,30.71,NE,55,2.0,8.0,79,0.00,,,0.00,Wunderground v.1.15,2013-11-30 09:13:00,
2013-11-30 04:18:00,28.6,22.6,30.71,NE,39,3.0,8.0,78,0.00,,,0.00,Wunderground v.1.15,2013-11-30 09:18:00,
2013-11-30 04:19:00,28.8,22.8,30.71,NE,39,3.0,8.0,78,0.00,,,0.00,Wunderground v.1.15,2013-11-30 09:19:00,
2013-11-30 04:20:00,28.8,22.8,30.70,ENE,59,3.0,3.0,78,0.00,,,0.00,Wunderground v.1.15,2013-11-30 09:20:00,
2013-11-30 04:23:00,28.9,22.6,30.70,ENE,59,3.0,8.0,77,0.00,,,0.00,Wunderground v.1.15,2013-11-30 09:23:00,
2013-11-30 04:24:00,28.9,22.6,30.71,ENE,60,2.0,8.0,77,0.00,,,0.00,Wunderground v.1.15,2013-11-30 09:24:00,
2013-11-30 04:25:00,28.8,22.5,30.70,ENE,60,2.0,8.0,77,0.00,,,0.00,Wunderground v.1.15,2013-11-30 09:25:00,
2013-11-30 04:28:00,28.5,22.5,30.70,ENE,60,1.0,8.0,78,0.00,,,0.00,Wunderground v.1.15,2013-11-30 09:28:00,
2013-11-30 04:31:00,28.3,22.3,30.71,ENE,60,0.0,8.0,78,0.00,,,0.00,Wunderground v.1.15,2013-11-30 09:31:00,
2013-11-30 04:34:00,28.1,22.4,30.71,ENE,60,0.0,8.0,79,0.00,,,0.00,Wunderground v.1.15,2013-11-30 09:34:00,
2013-11-30 04:35:00,28.1,22.4,30.71,ENE,60,0.0,8.0,79,0.00,,,0.00,Wunderground v.1.15,2013-11-30 09:35:00,
2013-11-30 04:36:00,28.2,22.5,30.71,ENE,57,0.0,8.0,79,0.00,,,0.00,Wunderground v.1.15,2013-11-30 09:36:00,
2013-11-30 04:37:00,28.2,22.5,30.71,ENE,57,1.0,8.0,79,0.00,,,0.00,Wunderground v.1.15,2013-11-30 09:37:00,
2013-11-30 04:41:00,28.3,22.6,30.71,ENE,57,1.0,8.0,79,0.00,,,0.00,Wunderground v.1.15,2013-11-30 09:41:00,
2013-11-30 04:42:00,28.3,22.6,30.71,ENE,57,1.0,8.0,79,0.00,,,0.00,Wunderground v.1.15,2013-11-30 09:42:00,
2013-11-30 04:43:00,28.3,22.6,30.71,ENE,57,1.0,8.0,79,0.00,,,0.00,Wunderground v.1.15,2013-11-30 09:43:00,
2013-11-30 04:45:00,28.2,22.5,30.71,NE,42,1.0,8.0,79,0.00,,,0.00,Wunderground v.1.15,2013-11-30 09:45:00,
2013-11-30 04:46:00,28.2,22.5,30.71,NE,40,1.0,8.0,79,0.00,,,0.00,Wunderground v.1.15,2013-11-30 09:46:00,
2013-11-30 04:47:00,28.3,22.6,30.71,NE,40,1.0,8.0,79,0.00,,,0.00,Wunderground v.1.15,2013-11-30 09:47:00,
2013-11-30 04:48:00,28.4,22.4,30.71,NNE,22,1.0,8.0,78,0.00,,,0.00,Wunderground v.1.15,2013-11-30 09:48:00,
2013-11-30 04:50:00,28.5,22.5,30.71,NE,42,2.0,2.0,78,0.00,,,0.00,Wunderground v.1.15,2013-11-30 09:50:00,
2013-11-30 04:51:00,28.6,22.6,30.71,NE,42,2.0,8.0,78,0.00,,,0.00,Wunderground v.1.15,2013-11-30 09:51:00,
2013-11-30 04:53:00,28.7,22.7,30.71,NE,39,2.0,8.0,78,0.00,,,0.00,Wunderground v.1.15,2013-11-30 09:53:00,
2013-11-30 04:54:00,28.7,22.4,30.71,NE,52,2.0,8.0,77,0.00,,,0.00,Wunderground v.1.15,2013-11-30 09:54:00,
2013-11-30 04:56:00,28.5,22.5,30.71,NE,46,2.0,8.0,78,0.00,,,0.00,Wunderground v.1.15,2013-11-30 09:56:00,
2013-11-30 04:57:00,28.4,22.4,30.71,NE,46,1.0,8.0,78,0.00,,,0.00,Wunderground v.1.15,2013-11-30 09:57:00,
2013-11-30 04:58:00,28.3,22.3,30.71,NE,46,1.0,8.0,78,0.00,,,0.00,Wunderground v.1.15,2013-11-30 09:58:00,
2013-11-30 05:01:00,28.0,22.0,30.71,NE,46,0.0,8.0,78,0.00,,,0.00,Wunderground v.1.15,2013-11-30 10:01:00,
2013-11-30 05:02:00,27.9,22.2,30.71,NE,46,0.0,8.0,79,0.00,,,0.00,Wunderground v.1.15,2013-11-30 10:02:00,
2013-11-30 05:03:00,27.8,22.1,30.71,NE,46,0.0,8.0,79,0.00,,,0.00,Wunderground v.1.15,2013-11-30 10:03:00,
2013-11-30 05:05:00,27.6,21.9,30.71,ENE,59,0.0,8.0,79,0.00,,,0.00,Wunderground v.1.15,2013-11-30 10:05:00,
2013-11-30 05:08:00,27.6,22.2,30.71,ENE,59,0.0,8.0,80,0.00,,,0.00,Wunderground v.1.15,2013-11-30 10:08:00,
2013-11-30 05:09:00,27.6,22.2,30.71,ENE,59,1.0,8.0,80,0.00,,,0.00,Wunderground v.1.15,2013-11-30 10:09:00,
2013-11-30 05:10:00,27.5,22.1,30.71,ENE,59,1.0,8.0,80,0.00,,,0.00,Wunderground v.1.15,2013-11-30 10:10:00,
2013-11-30 05:11:00,27.5,22.1,30.71,ENE,59,1.0,8.0,80,0.00,,,0.00,Wunderground v.1.15,2013-11-30 10:11:00,
2013-11-30 05:12:00,27.5,22.1,30.71,ENE,59,1.0,8.0,80,0.00,,,0.00,Wunderground v.1.15,2013-11-30 10:12:00,
2013-11-30 05:14:00,27.4,22.0,30.71,ENE,59,1.0,8.0,80,0.00,,,0.00,Wunderground v.1.15,2013-11-30 10:14:00,
2013-11-30 05:15:00,27.4,22.0,30.71,ENE,59,1.0,8.0,80,0.00,,,0.00,Wunderground v.1.15,2013-11-30 10:15:00,
2013-11-30 05:16:00,27.4,22.0,30.71,ENE,59,1.0,8.0,80,0.00,,,0.00,Wunderground v.1.15,2013-11-30 10:16:00,
2013-11-30 05:17:00,27.3,21.9,30.71,ENE,59,1.0,8.0,80,0.00,,,0.00,Wunderground v.1.15,2013-11-30 10:17:00,
2013-11-30 05:18:00,27.2,21.8,30.71,ENE,59,1.0,8.0,80,0.00,,,0.00,Wunderground v.1.15,2013-11-30 10:18:00,
2013-11-30 05:23:00,26.9,21.8,30.71,ENE,59,1.0,8.0,81,0.00,,,0.00,Wunderground v.1.15,2013-11-30 10:23:00,
2013-11-30 05:25:00,27.0,21.9,30.71,ENE,59,1.0,8.0,81,0.00,,,0.00,Wunderground v.1.15,2013-11-30 10:25:00,
2013-11-30 05:26:00,27.1,22.0,30.71,ENE,59,2.0,8.0,81,0.00,,,0.00,Wunderground v.1.15,2013-11-30 10:26:00,
2013-11-30 05:29:00,27.3,21.9,30.71,ENE,59,2.0,8.0,80,0.00,,,0.00,Wunderground v.1.15,2013-11-30 10:29:00,
2013-11-30 05:32:00,27.4,22.0,30.71,ENE,59,2.0,8.0,80,0.00,,,0.00,Wunderground v.1.15,2013-11-30 10:32:00,
2013-11-30 05:33:00,27.5,22.1,30.71,ENE,59,2.0,8.0,80,0.00,,,0.00,Wunderground v.1.15,2013-11-30 10:33:00,
2013-11-30 05:34:00,27.6,22.2,30.71,ENE,59,2.0,8.0,80,0.00,,,0.00,Wunderground v.1.15,2013-11-30 10:34:00,
2013-11-30 05:36:00,27.8,22.4,30.71,NE,50,2.0,8.0,80,0.00,,,0.00,Wunderground v.1.15,2013-11-30 10:36:00,
2013-11-30 05:39:00,28.3,22.6,30.71,NE,47,3.0,8.0,79,0.00,,,0.00,Wunderground v.1.15,2013-11-30 10:39:00,
2013-11-30 05:40:00,28.4,22.4,30.71,NE,44,3.0,8.0,78,0.00,,,0.00,Wunderground v.1.15,2013-11-30 10:40:00,
2013-11-30 05:41:00,28.5,22.5,30.71,ENE,57,4.0,8.0,78,0.00,,,0.00,Wunderground v.1.15,2013-11-30 10:41:00,
2013-11-30 05:42:00,28.7,22.7,30.71,NE,56,4.0,8.0,78,0.00,,,0.00,Wunderground v.1.15,2013-11-30 10:42:00,
2013-11-30 05:43:00,28.7,22.4,30.71,NE,51,4.0,8.0,77,0.00,,,0.00,Wunderground v.1.15,2013-11-30 10:43:00,
2013-11-30 05:46:00,28.9,22.6,30.71,NE,40,4.0,8.0,77,0.00,,,0.00,Wunderground v.1.15,2013-11-30 10:46:00,
2013-11-30 05:48:00,29.0,22.7,30.71,NE,47,4.0,8.0,77,0.00,,,0.00,Wunderground v.1.15,2013-11-30 10:48:00,
2013-11-30 05:49:00,29.0,22.4,30.71,NE,42,4.0,8.0,76,0.00,,,0.00,Wunderground v.1.15,2013-11-30 10:49:00,
2013-11-30 05:53:00,29.0,22.4,30.71,NE,46,4.0,8.0,76,0.00,,,0.00,Wunderground v.1.15,2013-11-30 10:53:00,
2013-11-30 05:54:00,29.0,22.4,30.71,NE,48,4.0,8.0,76,0.00,,,0.00,Wunderground v.1.15,2013-11-30 10:54:00,
2013-11-30 05:56:00,28.9,22.3,30.71,NE,43,4.0,8.0,76,0.00,,,0.00,Wunderground v.1.15,2013-11-30 10:56:00,
2013-11-30 05:57:00,28.9,22.3,30.71,NE,41,4.0,8.0,76,0.00,,,0.00,Wunderground v.1.15,2013-11-30 10:57:00,
2013-11-30 05:58:00,28.9,22.3,30.71,ENE,57,4.0,8.0,76,0.00,,,0.00,Wunderground v.1.15,2013-11-30 10:58:00,
2013-11-30 06:02:00,28.8,22.5,30.71,NE,44,4.0,8.0,77,0.00,,,0.00,Wunderground v.1.15,2013-11-30 11:02:00,
2013-11-30 06:05:00,28.8,22.5,30.71,ENE,70,4.0,8.0,77,0.00,,,0.00,Wunderground v.1.15,2013-11-30 11:05:00,
2013-11-30 06:06:00,28.7,22.4,30.71,ENE,70,4.0,8.0,77,0.00,,,0.00,Wunderground v.1.15,2013-11-30 11:06:00,
2013-11-30 06:07:00,28.7,22.4,30.71,ENE,70,3.0,8.0,77,0.00,,,0.00,Wunderground v.1.15,2013-11-30 11:07:00,
2013-11-30 06:11:00,28.4,22.1,30.72,East,81,2.0,8.0,77,0.00,,,0.00,Wunderground v.1.15,2013-11-30 11:11:00,
2013-11-30 06:12:00,28.3,22.0,30.71,East,81,2.0,8.0,77,0.00,,,0.00,Wunderground v.1.15,2013-11-30 11:12:00,
2013-11-30 06:16:00,28.0,22.0,30.72,ENE,71,2.0,8.0,78,0.00,,,0.00,Wunderground v.1.15,2013-11-30 11:16:00,
2013-11-30 06:17:00,27.9,21.9,30.72,ENE,71,2.0,8.0,78,0.00,,,0.00,Wunderground v.1.15,2013-11-30 11:17:00,
2013-11-30 06:18:00,27.8,21.8,30.72,ENE,71,2.0,8.0,78,0.00,,,0.00,Wunderground v.1.15,2013-11-30 11:18:00,
2013-11-30 06:21:00,27.7,22.0,30.72,ENE,71,2.0,8.0,79,0.00,,,0.00,Wunderground v.1.15,2013-11-30 11:21:00,
2013-11-30 06:22:00,27.7,22.0,30.72,ENE,71,2.0,8.0,79,0.00,,,0.00,Wunderground v.1.15,2013-11-30 11:22:00,
2013-11-30 06:23:00,27.7,22.0,30.72,ENE,71,2.0,8.0,79,0.00,,,0.00,Wunderground v.1.15,2013-11-30 11:23:00,
2013-11-30 06:24:00,27.7,22.0,30.72,ENE,71,2.0,8.0,79,0.00,,,0.00,Wunderground v.1.15,2013-11-30 11:24:00,
2013-11-30 06:27:00,27.8,22.1,30.72,ENE,64,3.0,8.0,79,0.00,,,0.00,Wunderground v.1.15,2013-11-30 11:27:00,
2013-11-30 06:28:00,27.8,22.1,30.72,ENE,69,3.0,8.0,79,0.00,,,0.00,Wunderground v.1.15,2013-11-30 11:28:00,
2013-11-30 06:29:00,27.9,22.2,30.72,ENE,69,4.0,8.0,79,0.00,,,0.00,Wunderground v.1.15,2013-11-30 11:29:00,
2013-11-30 06:32:00,28.0,22.0,30.72,ENE,59,4.0,8.0,78,0.00,,,0.00,Wunderground v.1.15,2013-11-30 11:32:00,
2013-11-30 06:34:00,28.2,22.2,30.72,NE,51,5.0,8.0,78,0.00,,,0.00,Wunderground v.1.15,2013-11-30 11:34:00,
2013-11-30 06:35:00,28.2,22.2,30.72,ENE,65,5.0,8.0,78,0.00,,,0.00,Wunderground v.1.15,2013-11-30 11:35:00,
2013-11-30 06:36:00,28.3,22.3,30.72,ENE,76,5.0,8.0,78,0.00,,,0.00,Wunderground v.1.15,2013-11-30 11:36:00,
2013-11-30 06:38:00,28.3,22.3,30.72,NE,53,5.0,8.0,78,0.00,,,0.00,Wunderground v.1.15,2013-11-30 11:38:00,
2013-11-30 06:39:00,28.3,22.3,30.72,ENE,57,5.0,8.0,78,0.00,,,0.00,Wunderground v.1.15,2013-11-30 11:39:00,
2013-11-30 06:41:00,28.4,22.4,30.72,NE,49,4.0,8.0,78,0.00,,,0.00,Wunderground v.1.15,2013-11-30 11:41:00,
2013-11-30 06:44:00,28.3,22.3,30.72,ENE,57,4.0,8.0,78,0.00,,,0.00,Wunderground v.1.15,2013-11-30 11:44:00,
2013-11-30 06:45:00,28.3,22.3,30.72,ENE,57,4.0,8.0,78,0.00,,,0.00,Wunderground v.1.15,2013-11-30 11:45:00,
2013-11-30 06:46:00,28.2,22.2,30.72,ENE,57,3.0,8.0,78,0.00,,,0.00,Wunderground v.1.15,2013-11-30 11:46:00,
2013-11-30 06:47:00,28.1,22.1,30.72,ENE,57,3.0,8.0,78,0.00,,,0.00,Wunderground v.1.15,2013-11-30 11:47:00,
2013-11-30 06:52:00,27.6,21.9,30.72,ENE,67,3.0,8.0,79,0.00,,,0.00,Wunderground v.1.15,2013-11-30 11:52:00,
2013-11-30 06:53:00,27.7,22.0,30.72,East,80,3.0,8.0,79,0.00,,,0.00,Wunderground v.1.15,2013-11-30 11:53:00,
2013-11-30 06:54:00,27.7,22.0,30.72,East,80,3.0,8.0,79,0.00,,,0.00,Wunderground v.1.15,2013-11-30 11:54:00,
2013-11-30 06:56:00,27.8,22.1,30.73,ENE,67,4.0,8.0,79,0.00,,,0.00,Wunderground v.1.15,2013-11-30 11:56:00,
2013-11-30 06:57:00,27.8,22.1,30.73,East,80,4.0,8.0,79,0.00,,,0.00,Wunderground v.1.15,2013-11-30 11:57:00,
2013-11-30 06:58:00,27.9,22.2,30.72,ENE,71,4.0,8.0,79,0.00,,,0.00,Wunderground v.1.15,2013-11-30 11:58:00,
2013-11-30 07:01:00,27.9,21.9,30.72,ENE,74,5.0,8.0,78,0.00,,,0.00,Wunderground v.1.15,2013-11-30 12:01:00,
2013-11-30 07:03:00,27.9,21.9,30.72,ENE,68,4.0,8.0,78,0.00,,,0.00,Wunderground v.1.15,2013-11-30 12:03:00,
2013-11-30 07:04:00,27.9,21.9,30.72,NE,55,4.0,8.0,78,0.00,,,0.00,Wunderground v.1.15,2013-11-30 12:04:00,
2013-11-30 07:06:00,27.9,21.9,30.72,NE,55,4.0,8.0,78,0.00,,,0.00,Wunderground v.1.15,2013-11-30 12:06:00,
2013-11-30 07:09:00,27.9,22.2,30.72,NE,43,4.0,8.0,79,0.00,,,0.00,Wunderground v.1.15,2013-11-30 12:09:00,
2013-11-30 07:11:00,27.9,22.2,30.72,NNE,26,4.0,8.0,79,0.00,,,0.00,Wunderground v.1.15,2013-11-30 12:11:00,
2013-11-30 07:12:00,27.9,22.2,30.72,NE,39,5.0,8.0,79,0.00,,,0.00,Wunderground v.1.15,2013-11-30 12:12:00,
2013-11-30 07:15:00,27.9,22.2,30.72,NE,54,4.0,8.0,79,0.00,,,0.00,Wunderground v.1.15,2013-11-30 12:15:00,
2013-11-30 07:16:00,27.9,22.2,30.72,NE,51,4.0,8.0,79,0.00,,,0.00,Wunderground v.1.15,2013-11-30 12:16:00,
2013-11-30 07:17:00,27.9,22.2,30.72,NE,48,4.0,8.0,79,0.00,,,0.00,Wunderground v.1.15,2013-11-30 12:17:00,
2013-11-30 07:19:00,27.8,22.1,30.72,NE,48,4.0,8.0,79,0.00,,,0.00,Wunderground v.1.15,2013-11-30 12:19:00,
2013-11-30 07:20:00,27.8,22.1,30.72,NE,46,3.0,3.0,79,0.00,,,0.00,Wunderground v.1.15,2013-11-30 12:20:00,
2013-11-30 07:25:00,27.9,22.2,30.73,NE,55,3.0,8.0,79,0.00,,,0.00,Wunderground v.1.15,2013-11-30 12:25:00,
2013-11-30 07:27:00,27.7,22.0,30.72,NE,55,2.0,8.0,79,0.00,,,0.00,Wunderground v.1.15,2013-11-30 12:27:00,
2013-11-30 07:29:00,27.5,21.8,30.73,NE,55,2.0,8.0,79,0.00,,,0.00,Wunderground v.1.15,2013-11-30 12:29:00,
2013-11-30 07:30:00,27.4,21.7,30.72,NE,55,2.0,2.0,79,0.00,,,0.00,Wunderground v.1.15,2013-11-30 12:30:00,
2013-11-30 07:32:00,27.3,21.6,30.73,NE,55,1.0,8.0,79,0.00,,,0.00,Wunderground v.1.15,2013-11-30 12:32:00,
2013-11-30 07:33:00,27.2,21.8,30.73,NE,55,0.0,8.0,80,0.00,,,0.00,Wunderground v.1.15,2013-11-30 12:33:00,
2013-11-30 07:34:00,27.1,21.7,30.73,NE,55,0.0,8.0,80,0.00,,,0.00,Wunderground v.1.15,2013-11-30 12:34:00,
2013-11-30 07:35:00,27.1,21.7,30.73,NE,55,0.0,8.0,80,0.00,,,0.00,Wunderground v.1.15,2013-11-30 12:35:00,
2013-11-30 07:37:00,27.0,21.9,30.73,NE,38,0.0,8.0,81,0.00,,,0.00,Wunderground v.1.15,2013-11-30 12:37:00,
2013-11-30 07:38:00,27.0,21.9,30.73,NE,49,1.0,8.0,81,0.00,,,0.00,Wunderground v.1.15,2013-11-30 12:38:00,
2013-11-30 07:39:00,27.1,22.0,30.73,NE,38,1.0,8.0,81,0.00,,,0.00,Wunderground v.1.15,2013-11-30 12:39:00,
2013-11-30 07:40:00,27.2,22.1,30.72,NE,37,1.0,8.0,81,0.00,,,0.00,Wunderground v.1.15,2013-11-30 12:40:00,
2013-11-30 07:41:00,27.3,22.2,30.72,ENE,57,2.0,8.0,81,0.00,,,0.00,Wunderground v.1.15,2013-11-30 12:41:00,
2013-11-30 07:45:00,27.6,22.2,30.72,ENE,61,4.0,8.0,80,0.00,,,0.00,Wunderground v.1.15,2013-11-30 12:45:00,
2013-11-30 07:46:00,27.7,22.3,30.72,NE,51,4.0,8.0,80,0.00,,,0.00,Wunderground v.1.15,2013-11-30 12:46:00,
2013-11-30 07:48:00,27.8,22.1,30.72,NE,48,4.0,8.0,79,0.00,,,0.00,Wunderground v.1.15,2013-11-30 12:48:00,
2013-11-30 07:49:00,27.8,22.1,30.72,ENE,61,4.0,8.0,79,0.00,,,0.00,Wunderground v.1.15,2013-11-30 12:49:00,
2013-11-30 07:50:00,27.9,22.2,30.72,NE,53,4.0,4.0,79,0.00,,,0.00,Wunderground v.1.15,2013-11-30 12:50:00,
2013-11-30 07:51:00,27.9,22.2,30.72,ENE,63,4.0,8.0,79,0.00,,,0.00,Wunderground v.1.15,2013-11-30 12:51:00,
2013-11-30 07:56:00,27.8,22.1,30.72,ENE,63,3.0,8.0,79,0.00,,,0.00,Wunderground v.1.15,2013-11-30 12:56:00,
2013-11-30 07:57:00,27.7,22.0,30.72,ENE,63,3.0,8.0,79,0.00,,,0.00,Wunderground v.1.15,2013-11-30 12:57:00,
2013-11-30 08:01:00,27.4,22.0,30.72,ENE,64,2.0,3.0,80,0.00,,,0.00,Wunderground v.1.15,2013-11-30 13:01:00,
2013-11-30 08:02:00,27.3,21.9,30.72,ENE,64,2.0,8.0,80,0.00,,,0.00,Wunderground v.1.15,2013-11-30 13:02:00,
2013-11-30 08:03:00,27.3,21.9,30.72,ENE,67,2.0,8.0,80,0.00,,,0.00,Wunderground v.1.15,2013-11-30 13:03:00,
2013-11-30 08:04:00,27.2,21.8,30.72,ENE,68,2.0,8.0,80,0.00,,,0.00,Wunderground v.1.15,2013-11-30 13:04:00,
2013-11-30 08:07:00,27.1,22.0,30.73,ENE,68,2.0,8.0,81,0.00,,,0.00,Wunderground v.1.15,2013-11-30 13:07:00,
2013-11-30 08:08:00,27.0,21.9,30.73,ENE,68,2.0,8.0,81,0.00,,,0.00,Wunderground v.1.15,2013-11-30 13:08:00,
2013-11-30 08:12:00,27.2,22.4,30.72,ENE,66,2.0,8.0,82,0.00,,,0.00,Wunderground v.1.15,2013-11-30 13:12:00,
2013-11-30 08:13:00,27.3,22.5,30.72,NNE,31,2.0,8.0,82,0.00,,,0.00,Wunderground v.1.15,2013-11-30 13:13:00,
2013-11-30 08:14:00,27.4,22.3,30.72,NE,44,2.0,8.0,81,0.00,,,0.00,Wunderground v.1.15,2013-11-30 13:14:00,
2013-11-30 08:15:00,27.5,22.4,30.72,NE,37,3.0,8.0,81,0.00,,,0.00,Wunderground v.1.15,2013-11-30 13:15:00,
2013-11-30 08:17:00,27.8,22.7,30.72,NE,41,3.0,8.0,81,0.00,,,0.00,Wunderground v.1.15,2013-11-30 13:17:00,
2013-11-30 08:19:00,28.1,22.7,30.72,NE,37,4.0,8.0,80,0.00,,,0.00,Wunderground v.1.15,2013-11-30 13:19:00,
2013-11-30 08:22:00,28.4,23.0,30.72,ENE,60,5.0,8.0,80,0.00,,,0.00,Wunderground v.1.15,2013-11-30 13:22:00,
2013-11-30 08:24:00,28.5,22.8,30.72,NE,50,5.0,8.0,79,0.00,,,0.00,Wunderground v.1.15,2013-11-30 13:24:00,
2013-11-30 08:26:00,28.7,23.0,30.72,NE,55,5.0,8.0,79,0.00,,,0.00,Wunderground v.1.15,2013-11-30 13:26:00,
2013-11-30 08:27:00,28.7,22.7,30.72,NE,41,5.0,8.0,78,0.00,,,0.00,Wunderground v.1.15,2013-11-30 13:27:00,
2013-11-30 08:28:00,28.7,22.7,30.72,East,82,5.0,8.0,78,0.00,,,0.00,Wunderground v.1.15,2013-11-30 13:28:00,
2013-11-30 08:29:00,28.8,22.8,30.72,NE,56,4.0,8.0,78,0.00,,,0.00,Wunderground v.1.15,2013-11-30 13:29:00,
2013-11-30 08:31:00,28.9,23.2,30.72,ENE,75,4.0,8.0,79,0.00,,,0.00,Wunderground v.1.15,2013-11-30 13:31:00,
2013-11-30 08:35:00,28.9,22.9,30.72,NE,46,4.0,8.0,78,0.00,,,0.00,Wunderground v.1.15,2013-11-30 13:35:00,
2013-11-30 08:36:00,29.0,23.3,30.72,NE,43,4.0,8.0,79,0.00,,,0.00,Wunderground v.1.15,2013-11-30 13:36:00,
2013-11-30 08:38:00,29.0,23.0,30.73,ENE,70,4.0,8.0,78,0.00,,,0.00,Wunderground v.1.15,2013-11-30 13:38:00,
2013-11-30 08:40:00,29.2,23.2,30.73,NE,49,4.0,8.0,78,0.00,,,0.00,Wunderground v.1.15,2013-11-30 13:40:00,
2013-11-30 08:42:00,29.3,23.0,30.73,ENE,61,4.0,8.0,77,0.00,,,0.00,Wunderground v.1.15,2013-11-30 13:42:00,
2013-11-30 08:43:00,29.3,23.0,30.73,ENE,61,4.0,8.0,77,0.00,,,0.00,Wunderground v.1.15,2013-11-30 13:43:00,
2013-11-30 08:47:00,29.6,23.3,30.73,NE,44,3.0,8.0,77,0.00,,,0.00,Wunderground v.1.15,2013-11-30 13:47:00,
2013-11-30 08:48:00,29.7,23.4,30.73,ENE,67,3.0,8.0,77,0.00,,,0.00,Wunderground v.1.15,2013-11-30 13:48:00,
2013-11-30 08:50:00,29.8,23.5,30.73,NE,55,3.0,3.0,77,0.00,,,0.00,Wunderground v.1.15,2013-11-30 13:50:00,
2013-11-30 08:52:00,29.9,23.3,30.73,ENE,61,2.0,8.0,76,0.00,,,0.00,Wunderground v.1.15,2013-11-30 13:52:00,
2013-11-30 08:53:00,29.9,23.3,30.73,ENE,61,2.0,8.0,76,0.00,,,0.00,Wunderground v.1.15,2013-11-30 13:53:00,
2013-11-30 08:55:00,30.0,23.4,30.73,NNE,32,2.0,8.0,76,0.00,,,0.00,Wunderground v.1.15,2013-11-30 13:55:00,
2013-11-30 08:56:00,30.1,23.4,30.73,East,86,2.0,8.0,76,0.00,,,0.00,Wunderground v.1.15,2013-11-30 13:56:00,
2013-11-30 08:58:00,30.2,23.9,30.73,East,100,2.0,8.0,77,0.00,,,0.00,Wunderground v.1.15,2013-11-30 13:58:00,
2013-11-30 08:59:00,30.3,23.6,30.73,East,100,2.0,8.0,76,0.00,,,0.00,Wunderground v.1.15,2013-11-30 13:59:00,
2013-11-30 09:03:00,30.5,23.2,30.73,NE,42,3.0,8.0,74,0.00,,,0.00,Wunderground v.1.15,2013-11-30 14:03:00,
2013-11-30 09:04:00,30.5,23.2,30.73,NE,36,3.0,8.0,74,0.00,,,0.00,Wunderground v.1.15,2013-11-30 14:04:00,
2013-11-30 09:05:00,30.5,23.2,30.73,ENE,67,3.0,8.0,74,0.00,,,0.00,Wunderground v.1.15,2013-11-30 14:05:00,
2013-11-30 09:06:00,30.5,23.2,30.73,ENE,63,4.0,8.0,74,0.00,,,0.00,Wunderground v.1.15,2013-11-30 14:06:00,
2013-11-30 09:08:00,30.6,23.3,30.73,NNE,30,5.0,8.0,74,0.00,,,0.00,Wunderground v.1.15,2013-11-30 14:08:00,
2013-11-30 09:09:00,30.6,23.3,30.73,NNE,14,5.0,8.0,74,0.00,,,0.00,Wunderground v.1.15,2013-11-30 14:09:00,
2013-11-30 09:12:00,30.8,23.5,30.73,NNE,26,5.0,8.0,74,0.00,,,0.00,Wunderground v.1.15,2013-11-30 14:12:00,
2013-11-30 09:15:00,30.9,22.9,30.73,ENE,67,5.0,8.0,72,0.00,,,0.00,Wunderground v.1.15,2013-11-30 14:15:00,
2013-11-30 09:16:00,30.9,22.9,30.73,ENE,68,5.0,8.0,72,0.00,,,0.00,Wunderground v.1.15,2013-11-30 14:16:00,
2013-11-30 09:17:00,31.0,23.4,30.73,ENE,69,5.0,8.0,73,0.00,,,0.00,Wunderground v.1.15,2013-11-30 14:17:00,
2013-11-30 09:19:00,31.0,23.4,30.73,ENE,63,4.0,8.0,73,0.00,,,0.00,Wunderground v.1.15,2013-11-30 14:19:00,
2013-11-30 09:20:00,31.1,23.5,30.73,NE,46,4.0,8.0,73,0.00,,,0.00,Wunderground v.1.15,2013-11-30 14:20:00,
2013-11-30 09:21:00,31.2,23.5,30.73,NE,46,4.0,8.0,73,0.00,,,0.00,Wunderground v.1.15,2013-11-30 14:21:00,
2013-11-30 09:23:00,31.2,23.5,30.73,NE,43,3.0,8.0,73,0.00,,,0.00,Wunderground v.1.15,2013-11-30 14:23:00,
2013-11-30 09:27:00,31.2,22.9,30.73,NE,54,4.0,8.0,71,0.00,,,0.00,Wunderground v.1.15,2013-11-30 14:27:00,
2013-11-30 09:28:00,31.2,22.9,30.73,NE,46,4.0,8.0,71,0.00,,,0.00,Wunderground v.1.15,2013-11-30 14:28:00,
2013-11-30 09:29:00,31.1,23.1,30.73,NE,42,4.0,8.0,72,0.00,,,0.00,Wunderground v.1.15,2013-11-30 14:29:00,
2013-11-30 09:33:00,31.1,23.1,30.73,ENE,74,5.0,8.0,72,0.00,,,0.00,Wunderground v.1.15,2013-11-30 14:33:00,
2013-11-30 09:34:00,31.1,23.5,30.73,ENE,66,5.0,8.0,73,0.00,,,0.00,Wunderground v.1.15,2013-11-30 14:34:00,
2013-11-30 09:35:00,31.1,23.1,30.73,ENE,57,5.0,8.0,72,0.00,,,0.00,Wunderground v.1.15,2013-11-30 14:35:00,
2013-11-30 09:37:00,31.1,23.1,30.73,ENE,67,6.0,8.0,72,0.00,,,0.00,Wunderground v.1.15,2013-11-30 14:37:00,
2013-11-30 09:38:00,31.1,23.1,30.73,NE,54,6.0,8.0,72,0.00,,,0.00,Wunderground v.1.15,2013-11-30 14:38:00,
2013-11-30 09:42:00,31.3,23.6,30.73,NE,54,6.0,8.0,73,0.00,,,0.00,Wunderground v.1.15,2013-11-30 14:42:00,
2013-11-30 09:43:00,31.3,23.6,30.73,ENE,67,6.0,8.0,73,0.00,,,0.00,Wunderground v.1.15,2013-11-30 14:43:00,
2013-11-30 09:44:00,31.4,23.4,30.73,NE,53,6.0,8.0,72,0.00,,,0.00,Wunderground v.1.15,2013-11-30 14:44:00,
2013-11-30 09:48:00,31.3,23.3,30.73,NE,40,5.0,8.0,72,0.00,,,0.00,Wunderground v.1.15,2013-11-30 14:48:00,
2013-11-30 09:49:00,31.4,23.4,30.73,NE,42,6.0,8.0,72,0.00,,,0.00,Wunderground v.1.15,2013-11-30 14:49:00,
2013-11-30 09:50:00,31.4,23.4,30.73,NNE,22,6.0,8.0,72,0.00,,,0.00,Wunderground v.1.15,2013-11-30 14:50:00,
2013-11-30 09:52:00,31.4,23.4,30.73,ENE,76,6.0,8.0,72,0.00,,,0.00,Wunderground v.1.15,2013-11-30 14:52:00,
2013-11-30 09:53:00,31.5,23.5,30.73,NE,42,6.0,8.0,72,0.00,,,0.00,Wunderground v.1.15,2013-11-30 14:53:00,
2013-11-30 09:55:00,31.5,23.5,30.73,NE,42,6.0,8.0,72,0.00,,,0.00,Wunderground v.1.15,2013-11-30 14:55:00,
2013-11-30 09:58:00,31.5,23.5,30.73,NNW,340,5.0,8.0,72,0.00,,,0.00,Wunderground v.1.15,2013-11-30 14:58:00,
2013-11-30 10:00:00,31.7,23.7,30.72,ENE,78,5.0,8.0,72,0.00,,,0.00,Wunderground v.1.15,2013-11-30 15:00:00,
2013-11-30 10:02:00,31.8,23.8,30.72,NE,48,5.0,8.0,72,0.00,,,0.00,Wunderground v.1.15,2013-11-30 15:02:00,
2013-11-30 10:05:00,31.7,23.0,30.72,NNW,342,5.0,8.0,70,0.00,,,0.00,Wunderground v.1.15,2013-11-30 15:05:00,
2013-11-30 10:06:00,31.7,23.4,30.72,NNE,19,5.0,8.0,71,0.00,,,0.00,Wunderground v.1.15,2013-11-30 15:06:00,
2013-11-30 10:07:00,31.7,23.4,30.72,NE,44,5.0,8.0,71,0.00,,,0.00,Wunderground v.1.15,2013-11-30 15:07:00,
2013-11-30 10:08:00,31.7,23.4,30.72,NE,40,5.0,8.0,71,0.00,,,0.00,Wunderground v.1.15,2013-11-30 15:08:00,
2013-11-30 10:10:00,31.9,24.2,30.73,NNE,29,5.0,8.0,73,0.00,,,0.00,Wunderground v.1.15,2013-11-30 15:10:00,
2013-11-30 10:13:00,32.0,23.7,30.73,ENE,61,5.0,8.0,71,0.00,,,0.00,Wunderground v.1.15,2013-11-30 15:13:00,
2013-11-30 10:14:00,32.0,24.0,30.72,ENE,60,5.0,8.0,72,0.00,,,0.00,Wunderground v.1.15,2013-11-30 15:14:00,
2013-11-30 10:15:00,32.1,24.1,30.72,ENE,58,5.0,8.0,72,0.00,,,0.00,Wunderground v.1.15,2013-11-30 15:15:00,
2013-11-30 10:18:00,32.3,23.6,30.73,East,84,4.0,8.0,70,0.00,,,0.00,Wunderground v.1.15,2013-11-30 15:18:00,
2013-11-30 10:19:00,32.4,23.7,30.72,NNE,20,4.0,8.0,70,0.00,,,0.00,Wunderground v.1.15,2013-11-30 15:19:00,
2013-11-30 10:20:00,32.4,23.7,30.72,NE,43,4.0,8.0,70,0.00,,,0.00,Wunderground v.1.15,2013-11-30 15:20:00,
2013-11-30 10:25:00,32.5,23.8,30.72,ENE,69,4.0,8.0,70,0.00,,,0.00,Wunderground v.1.15,2013-11-30 15:25:00,
2013-11-30 10:26:00,32.6,23.9,30.72,NE,42,4.0,8.0,70,0.00,,,0.00,Wunderground v.1.15,2013-11-30 15:26:00,
2013-11-30 10:28:00,32.6,24.2,30.72,East,98,4.0,8.0,71,0.00,,,0.00,Wunderground v.1.15,2013-11-30 15:28:00,
2013-11-30 10:31:00,33.0,24.6,30.72,NE,54,4.0,7.0,71,0.00,,,0.00,Wunderground v.1.15,2013-11-30 15:31:00,
2013-11-30 10:33:00,33.1,23.7,30.72,NE,48,5.0,8.0,68,0.00,,,0.00,Wunderground v.1.15,2013-11-30 15:33:00,
2013-11-30 10:34:00,33.1,23.7,30.72,NE,48,5.0,8.0,68,0.00,,,0.00,Wunderground v.1.15,2013-11-30 15:34:00,
2013-11-30 10:35:00,33.2,23.8,30.72,NE,39,5.0,8.0,68,0.00,,,0.00,Wunderground v.1.15,2013-11-30 15:35:00,
2013-11-30 10:36:00,33.2,24.1,30.72,ENE,59,5.0,8.0,69,0.00,,,0.00,Wunderground v.1.15,2013-11-30 15:36:00,
2013-11-30 10:37:00,33.3,24.2,30.72,ENE,59,5.0,8.0,69,0.00,,,0.00,Wunderground v.1.15,2013-11-30 15:37:00,
2013-11-30 10:39:00,33.4,24.3,30.72,East,97,4.0,8.0,69,0.00,,,0.00,Wunderground v.1.15,2013-11-30 15:39:00,
2013-11-30 10:42:00,33.5,23.7,30.72,ENE,57,4.0,8.0,67,0.00,,,0.00,Wunderground v.1.15,2013-11-30 15:42:00,
2013-11-30 10:44:00,33.4,23.6,30.72,ESE,102,4.0,8.0,67,0.00,,,0.00,Wunderground v.1.15,2013-11-30 15:44:00,
2013-11-30 10:45:00,33.5,23.7,30.72,NE,55,4.0,8.0,67,0.00,,,0.00,Wunderground v.1.15,2013-11-30 15:45:00,
2013-11-30 10:46:00,33.4,23.6,30.72,NE,46,4.0,8.0,67,0.00,,,0.00,Wunderground v.1.15,2013-11-30 15:46:00,
2013-11-30 10:49:00,33.5,24.4,30.72,NE,36,3.0,8.0,69,0.00,,,0.00,Wunderground v.1.15,2013-11-30 15:49:00,
2013-11-30 10:50:00,33.6,24.2,30.72,NE,36,3.0,3.0,68,0.00,,,0.00,Wunderground v.1.15,2013-11-30 15:50:00,
2013-11-30 10:53:00,33.8,24.4,30.71,NE,54,2.0,8.0,68,0.00,,,0.00,Wunderground v.1.15,2013-11-30 15:53:00,
2013-11-30 10:54:00,33.9,24.4,30.72,NNE,23,2.0,8.0,68,0.00,,,0.00,Wunderground v.1.15,2013-11-30 15:54:00,
2013-11-30 10:55:00,33.9,24.4,30.71,NNE,26,2.0,8.0,68,0.00,,,0.00,Wunderground v.1.15,2013-11-30 15:55:00,
2013-11-30 10:56:00,34.0,24.2,30.71,NE,56,2.0,8.0,67,0.00,,,0.00,Wunderground v.1.15,2013-11-30 15:56:00,
2013-11-30 11:01:00,34.2,24.7,30.71,NW,308,3.0,8.0,68,0.00,,,0.00,Wunderground v.1.15,2013-11-30 16:01:00,
2013-11-30 11:02:00,34.3,24.5,30.71,WNW,296,3.0,8.0,67,0.00,,,0.00,Wunderground v.1.15,2013-11-30 16:02:00,
2013-11-30 11:03:00,34.3,24.5,30.71,NE,44,2.0,8.0,67,0.00,,,0.00,Wunderground v.1.15,2013-11-30 16:03:00,
2013-11-30 11:04:00,34.5,25.0,30.71,NE,43,2.0,8.0,68,0.00,,,0.00,Wunderground v.1.15,2013-11-30 16:04:00,
2013-11-30 11:05:00,34.6,25.1,30.71,NE,55,2.0,8.0,68,0.00,,,0.00,Wunderground v.1.15,2013-11-30 16:05:00,
2013-11-30 11:09:00,34.4,23.8,30.71,North,355,4.0,8.0,65,0.00,,,0.00,Wunderground v.1.15,2013-11-30 16:09:00,
2013-11-30 11:11:00,34.4,24.2,30.71,North,351,4.0,8.0,66,0.00,,,0.00,Wunderground v.1.15,2013-11-30 16:11:00,
2013-11-30 11:13:00,34.5,24.7,30.71,ENE,78,4.0,8.0,67,0.00,,,0.00,Wunderground v.1.15,2013-11-30 16:13:00,
2013-11-30 11:15:00,34.6,24.0,30.70,North,360,4.0,8.0,65,0.00,,,0.00,Wunderground v.1.15,2013-11-30 16:15:00,
2013-11-30 11:16:00,34.6,24.4,30.70,NE,40,4.0,8.0,66,0.00,,,0.00,Wunderground v.1.15,2013-11-30 16:16:00,
2013-11-30 11:17:00,34.7,24.5,30.70,East,88,4.0,8.0,66,0.00,,,0.00,Wunderground v.1.15,2013-11-30 16:17:00,
2013-11-30 11:18:00,34.8,24.2,30.70,NE,45,4.0,8.0,65,0.00,,,0.00,Wunderground v.1.15,2013-11-30 16:18:00,
2013-11-30 11:19:00,34.7,24.1,30.70,NNE,33,3.0,8.0,65,0.00,,,0.00,Wunderground v.1.15,2013-11-30 16:19:00,
2013-11-30 11:22:00,34.7,24.5,30.70,NNE,24,4.0,8.0,66,0.00,,,0.00,Wunderground v.1.15,2013-11-30 16:22:00,
2013-11-30 11:24:00,34.9,24.3,30.70,NNE,24,3.0,8.0,65,0.00,,,0.00,Wunderground v.1.15,2013-11-30 16:24:00,
2013-11-30 11:25:00,35.0,24.8,30.70,NE,34,3.0,8.0,66,0.00,,,0.00,Wunderground v.1.15,2013-11-30 16:25:00,
2013-11-30 11:27:00,35.2,24.6,30.70,NE,42,3.0,8.0,65,0.00,,,0.00,Wunderground v.1.15,2013-11-30 16:27:00,
2013-11-30 11:28:00,35.3,24.7,30.70,NNW,348,2.0,8.0,65,0.00,,,0.00,Wunderground v.1.15,2013-11-30 16:28:00,
2013-11-30 11:29:00,35.4,24.8,30.70,North,5,2.0,8.0,65,0.00,,,0.00,Wunderground v.1.15,2013-11-30 16:29:00,
2013-11-30 11:30:00,35.4,24.0,30.70,NNE,26,2.0,8.0,63,0.00,,,0.00,Wunderground v.1.15,2013-11-30 16:30:00,
2013-11-30 11:31:00,35.4,24.0,30.70,NE,36,3.0,8.0,63,0.00,,,0.00,Wunderground v.1.15,2013-11-30 16:31:00,
2013-11-30 11:35:00,35.5,25.3,30.69,North,5,3.0,8.0,66,0.00,,,0.00,Wunderground v.1.15,2013-11-30 16:35:00,
2013-11-30 11:37:00,35.7,24.7,30.69,NE,41,3.0,8.0,64,0.00,,,0.00,Wunderground v.1.15,2013-11-30 16:37:00,
2013-11-30 11:38:00,35.8,24.8,30.69,NE,41,3.0,8.0,64,0.00,,,0.00,Wunderground v.1.15,2013-11-30 16:38:00,
2013-11-30 11:41:00,36.0,24.6,30.69,North,11,2.0,8.0,63,0.00,,,0.00,Wunderground v.1.15,2013-11-30 16:41:00,
2013-11-30 11:45:00,35.9,24.1,30.69,NNE,28,3.0,8.0,62,0.00,,,0.00,Wunderground v.1.15,2013-11-30 16:45:00,
2013-11-30 11:46:00,35.9,24.1,30.69,NNE,25,3.0,8.0,62,0.00,,,0.00,Wunderground v.1.15,2013-11-30 16:46:00,
2013-11-30 11:47:00,35.9,24.1,30.68,NNE,16,3.0,8.0,62,0.00,,,0.00,Wunderground v.1.15,2013-11-30 16:47:00,
2013-11-30 11:48:00,35.9,24.1,30.68,NNW,329,3.0,8.0,62,0.00,,,0.00,Wunderground v.1.15,2013-11-30 16:48:00,
2013-11-30 11:50:00,36.0,24.2,30.68,North,5,4.0,4.0,62,0.00,,,0.00,Wunderground v.1.15,2013-11-30 16:50:00,
2013-11-30 11:52:00,36.1,23.9,30.68,NNE,16,4.0,8.0,61,0.00,,,0.00,Wunderground v.1.15,2013-11-30 16:52:00,
2013-11-30 11:53:00,36.1,23.9,30.68,NNE,21,4.0,8.0,61,0.00,,,0.00,Wunderground v.1.15,2013-11-30 16:53:00,
2013-11-30 11:56:00,36.1,23.9,30.68,NE,49,4.0,8.0,61,0.00,,,0.00,Wunderground v.1.15,2013-11-30 16:56:00,
2013-11-30 11:57:00,36.2,24.0,30.68,NE,49,4.0,8.0,61,0.00,,,0.00,Wunderground v.1.15,2013-11-30 16:57:00,
2013-11-30 12:00:00,36.4,24.2,30.68,ENE,59,3.0,3.0,61,0.00,,,0.00,Wunderground v.1.15,2013-11-30 17:00:00,
2013-11-30 12:02:00,36.6,24.4,30.67,East,93,2.0,8.0,61,0.00,,,0.00,Wunderground v.1.15,2013-11-30 17:02:00,
2013-11-30 12:04:00,36.8,24.6,30.67,NE,39,3.0,8.0,61,0.00,,,0.00,Wunderground v.1.15,2013-11-30 17:04:00,
2013-11-30 12:05:00,36.8,24.2,30.67,NE,37,3.0,8.0,60,0.00,,,0.00,Wunderground v.1.15,2013-11-30 17:05:00,
2013-11-30 12:07:00,36.8,23.8,30.67,NE,46,3.0,8.0,59,0.00,,,0.00,Wunderground v.1.15,2013-11-30 17:07:00,
2013-11-30 12:08:00,36.8,24.2,30.67,NE,34,3.0,8.0,60,0.00,,,0.00,Wunderground v.1.15,2013-11-30 17:08:00,
2013-11-30 12:12:00,36.8,24.2,30.66,South,169,3.0,8.0,60,0.00,,,0.00,Wunderground v.1.15,2013-11-30 17:12:00,
2013-11-30 12:13:00,36.9,24.7,30.66,WSW,237,3.0,8.0,61,0.00,,,0.00,Wunderground v.1.15,2013-11-30 17:13:00,
2013-11-30 12:14:00,37.1,24.9,30.66,SW,236,3.0,8.0,61,0.00,,,0.00,Wunderground v.1.15,2013-11-30 17:14:00,
2013-11-30 12:15:00,37.3,24.7,30.66,NE,34,3.0,8.0,60,0.00,,,0.00,Wunderground v.1.15,2013-11-30 17:15:00,
2013-11-30 12:17:00,37.5,24.9,30.66,ENE,76,2.0,8.0,60,0.00,,,0.00,Wunderground v.1.15,2013-11-30 17:17:00,
2013-11-30 12:18:00,37.7,25.1,30.66,ESE,120,2.0,8.0,60,0.00,,,0.00,Wunderground v.1.15,2013-11-30 17:18:00,
2013-11-30 12:21:00,37.8,24.3,30.66,ENE,76,3.0,8.0,58,0.00,,,0.00,Wunderground v.1.15,2013-11-30 17:21:00,
2013-11-30 12:23:00,37.9,24.4,30.65,ENE,75,3.0,8.0,58,0.00,,,0.00,Wunderground v.1.15,2013-11-30 17:23:00,
2013-11-30 12:24:00,37.9,24.0,30.65,East,81,3.0,8.0,57,0.00,,,0.00,Wunderground v.1.15,2013-11-30 17:24:00,
2013-11-30 12:26:00,37.9,24.0,30.65,East,97,4.0,8.0,57,0.00,,,0.00,Wunderground v.1.15,2013-11-30 17:26:00,
2013-11-30 12:27:00,37.9,24.0,30.65,ESE,110,5.0,8.0,57,0.00,,,0.00,Wunderground v.1.15,2013-11-30 17:27:00,
2013-11-30 12:28:00,37.9,23.6,30.65,ESE,104,5.0,8.0,56,0.00,,,0.00,Wunderground v.1.15,2013-11-30 17:28:00,
2013-11-30 12:31:00,38.0,24.1,30.65,South,190,4.0,8.0,57,0.00,,,0.00,Wunderground v.1.15,2013-11-30 17:31:00,
2013-11-30 12:32:00,38.2,23.9,30.64,SW,217,4.0,8.0,56,0.00,,,0.00,Wunderground v.1.15,2013-11-30 17:32:00,
2013-11-30 12:37:00,38.8,24.4,30.64,SSW,205,3.0,8.0,56,0.00,,,0.00,Wunderground v.1.15,2013-11-30 17:37:00,
2013-11-30 12:38:00,38.9,24.1,30.64,SSW,205,3.0,8.0,55,0.00,,,0.00,Wunderground v.1.15,2013-11-30 17:38:00,
2013-11-30 12:39:00,39.0,24.2,30.64,SSW,205,3.0,8.0,55,0.00,,,0.00,Wunderground v.1.15,2013-11-30 17:39:00,
2013-11-30 12:40:00,39.1,24.3,30.64,SSW,205,3.0,3.0,55,0.00,,,0.00,Wunderground v.1.15,2013-11-30 17:40:00,
2013-11-30 12:41:00,39.3,24.9,30.64,SSW,205,2.0,8.0,56,0.00,,,0.00,Wunderground v.1.15,2013-11-30 17:41:00,
2013-11-30 12:42:00,39.5,24.7,30.64,West,270,2.0,8.0,55,0.00,,,0.00,Wunderground v.1.15,2013-11-30 17:42:00,
2013-11-30 12:43:00,39.6,24.7,30.64,West,270,2.0,8.0,55,0.00,,,0.00,Wunderground v.1.15,2013-11-30 17:43:00,
2013-11-30 12:46:00,39.8,24.5,30.64,ENE,57,1.0,8.0,54,0.00,,,0.00,Wunderground v.1.15,2013-11-30 17:46:00,
2013-11-30 12:48:00,39.9,24.6,30.64,NE,36,2.0,8.0,54,0.00,,,0.00,Wunderground v.1.15,2013-11-30 17:48:00,
2013-11-30 12:49:00,39.8,24.0,30.63,NNE,13,2.0,8.0,53,0.00,,,0.00,Wunderground v.1.15,2013-11-30 17:49:00,
2013-11-30 12:50:00,39.8,24.5,30.63,NW,317,2.0,8.0,54,0.00,,,0.00,Wunderground v.1.15,2013-11-30 17:50:00,
2013-11-30 12:53:00,40.0,25.1,30.63,SSE,147,2.0,8.0,55,0.00,,,0.00,Wunderground v.1.15,2013-11-30 17:53:00,
2013-11-30 12:55:00,40.4,25.9,30.63,SSE,147,3.0,8.0,56,0.00,,,0.00,Wunderground v.1.15,2013-11-30 17:55:00,
2013-11-30 12:56:00,40.5,26.0,30.63,SE,135,3.0,8.0,56,0.00,,,0.00,Wunderground v.1.15,2013-11-30 17:56:00,
2013-11-30 12:57:00,40.6,25.2,30.63,SE,142,3.0,8.0,54,0.00,,,0.00,Wunderground v.1.15,2013-11-30 17:57:00,
2013-11-30 12:59:00,40.8,25.4,30.63,SSE,155,2.0,8.0,54,0.00,,,0.00,Wunderground v.1.15,2013-11-30 17:59:00,
2013-11-30 13:03:00,40.5,24.7,30.63,SSE,155,4.0,8.0,53,0.00,,,0.00,Wunderground v.1.15,2013-11-30 18:03:00,
2013-11-30 13:04:00,40.4,24.6,30.63,SE,138,4.0,8.0,53,0.00,,,0.00,Wunderground v.1.15,2013-11-30 18:04:00,
2013-11-30 13:05:00,40.4,24.6,30.63,SSE,155,4.0,8.0,53,0.00,,,0.00,Wunderground v.1.15,2013-11-30 18:05:00,
2013-11-30 13:08:00,40.4,25.5,30.62,SSW,197,5.0,8.0,55,0.00,,,0.00,Wunderground v.1.15,2013-11-30 18:08:00,
2013-11-30 13:09:00,40.5,25.1,30.63,SSE,166,5.0,8.0,54,0.00,,,0.00,Wunderground v.1.15,2013-11-30 18:09:00,
2013-11-30 13:11:00,40.8,25.0,30.62,SSE,155,5.0,8.0,53,0.00,,,0.00,Wunderground v.1.15,2013-11-30 18:11:00,
2013-11-30 13:13:00,40.8,24.5,30.62,SSE,157,5.0,8.0,52,0.00,,,0.00,Wunderground v.1.15,2013-11-30 18:13:00,
2013-11-30 13:14:00,40.8,24.5,30.62,SSE,167,5.0,8.0,52,0.00,,,0.00,Wunderground v.1.15,2013-11-30 18:14:00,
2013-11-30 13:17:00,40.7,24.4,30.62,South,186,4.0,8.0,52,0.00,,,0.00,Wunderground v.1.15,2013-11-30 18:17:00,
2013-11-30 13:18:00,40.8,25.0,30.62,SSE,149,4.0,8.0,53,0.00,,,0.00,Wunderground v.1.15,2013-11-30 18:18:00,
2013-11-30 13:20:00,40.9,24.1,30.62,SSE,148,4.0,8.0,51,0.00,,,0.00,Wunderground v.1.15,2013-11-30 18:20:00,
2013-11-30 13:21:00,40.8,24.1,30.62,SSE,164,4.0,8.0,51,0.00,,,0.00,Wunderground v.1.15,2013-11-30 18:21:00,
2013-11-30 13:22:00,40.7,24.4,30.62,SSE,162,4.0,8.0,52,0.00,,,0.00,Wunderground v.1.15,2013-11-30 18:22:00,
2013-11-30 13:24:00,40.8,25.0,30.62,SSE,153,4.0,8.0,53,0.00,,,0.00,Wunderground v.1.15,2013-11-30 18:24:00,
2013-11-30 13:27:00,40.8,24.1,30.61,SE,142,5.0,8.0,51,0.00,,,0.00,Wunderground v.1.15,2013-11-30 18:27:00,
2013-11-30 13:28:00,40.8,24.1,30.61,SSE,155,5.0,8.0,51,0.00,,,0.00,Wunderground v.1.15,2013-11-30 18:28:00,
2013-11-30 13:29:00,40.7,24.0,30.61,South,169,6.0,8.0,51,0.00,,,0.00,Wunderground v.1.15,2013-11-30 18:29:00,
2013-11-30 13:30:00,40.7,23.5,30.61,SE,138,5.0,5.0,50,0.00,,,0.00,Wunderground v.1.15,2013-11-30 18:30:00,
2013-11-30 13:32:00,40.8,24.1,30.61,SSW,210,5.0,8.0,51,0.00,,,0.00,Wunderground v.1.15,2013-11-30 18:32:00,
2013-11-30 13:33:00,40.9,24.1,30.61,SSW,213,5.0,8.0,51,0.00,,,0.00,Wunderground v.1.15,2013-11-30 18:33:00,
2013-11-30 13:38:00,41.2,23.9,30.61,SSW,200,5.0,8.0,50,0.00,,,0.00,Wunderground v.1.15,2013-11-30 18:38:00,
2013-11-30 13:39:00,41.2,23.5,30.61,South,190,5.0,8.0,49,0.00,,,0.00,Wunderground v.1.15,2013-11-30 18:39:00,
2013-11-30 13:41:00,41.3,24.5,30.60,SSE,159,5.0,8.0,51,0.00,,,0.00,Wunderground v.1.15,2013-11-30 18:41:00,
2013-11-30 13:42:00,41.4,25.1,30.60,SSE,153,5.0,8.0,52,0.00,,,0.00,Wunderground v.1.15,2013-11-30 18:42:00,
2013-11-30 13:43:00,41.6,24.8,30.60,SSE,148,5.0,8.0,51,0.00,,,0.00,Wunderground v.1.15,2013-11-30 18:43:00,
2013-11-30 13:46:00,41.7,22.9,30.60,SSW,195,5.0,8.0,47,0.00,,,0.00,Wunderground v.1.15,2013-11-30 18:46:00,
2013-11-30 13:47:00,41.6,22.8,30.60,South,170,4.0,8.0,47,0.00,,,0.00,Wunderground v.1.15,2013-11-30 18:47:00,
2013-11-30 13:48:00,41.7,23.4,30.60,SSW,211,4.0,8.0,48,0.00,,,0.00,Wunderground v.1.15,2013-11-30 18:48:00,
2013-11-30 13:50:00,41.7,23.9,30.60,SSE,153,5.0,8.0,49,0.00,,,0.00,Wunderground v.1.15,2013-11-30 18:50:00,
2013-11-30 13:51:00,41.8,24.5,30.60,South,171,5.0,8.0,50,0.00,,,0.00,Wunderground v.1.15,2013-11-30 18:51:00,
2013-11-30 13:53:00,41.8,23.5,30.60,South,177,5.0,8.0,48,0.00,,,0.00,Wunderground v.1.15,2013-11-30 18:53:00,
2013-11-30 13:57:00,41.7,23.4,30.60,SSW,198,5.0,9.0,48,0.00,,,0.00,Wunderground v.1.15,2013-11-30 18:57:00,
2013-11-30 13:59:00,41.6,23.3,30.59,SSE,152,5.0,9.0,48,0.00,,,0.00,Wunderground v.1.15,2013-11-30 18:59:00,
2013-11-30 14:01:00,41.6,23.3,30.60,SSE,157,5.0,8.0,48,0.00,,,0.00,Wunderground v.1.15,2013-11-30 19:01:00,
2013-11-30 14:03:00,41.6,23.3,30.60,SSW,200,6.0,8.0,48,0.00,,,0.00,Wunderground v.1.15,2013-11-30 19:03:00,
2013-11-30 14:04:00,41.6,23.8,30.60,SSE,152,6.0,8.0,49,0.00,,,0.00,Wunderground v.1.15,2013-11-30 19:04:00,
2013-11-30 14:07:00,41.6,23.3,30.59,SSE,152,6.0,8.0,48,0.00,,,0.00,Wunderground v.1.15,2013-11-30 19:07:00,
2013-11-30 14:09:00,41.7,23.9,30.59,South,174,6.0,8.0,49,0.00,,,0.00,Wunderground v.1.15,2013-11-30 19:09:00,
2013-11-30 14:10:00,41.8,24.0,30.59,SE,127,5.0,8.0,49,0.00,,,0.00,Wunderground v.1.15,2013-11-30 19:10:00,
2013-11-30 14:11:00,41.9,23.6,30.59,SE,144,5.0,8.0,48,0.00,,,0.00,Wunderground v.1.15,2013-11-30 19:11:00,
2013-11-30 14:12:00,41.9,23.1,30.59,SSE,147,5.0,8.0,47,0.00,,,0.00,Wunderground v.1.15,2013-11-30 19:12:00,
2013-11-30 14:13:00,41.9,24.1,30.59,SSE,151,5.0,8.0,49,0.00,,,0.00,Wunderground v.1.15,2013-11-30 19:13:00,
2013-11-30 14:16:00,42.0,24.2,30.59,South,178,4.0,8.0,49,0.00,,,0.00,Wunderground v.1.15,2013-11-30 19:16:00,
2013-11-30 14:17:00,42.0,24.2,30.59,SSE,156,4.0,8.0,49,0.00,,,0.00,Wunderground v.1.15,2013-11-30 19:17:00,
2013-11-30 14:18:00,42.2,24.9,30.59,SE,145,4.0,8.0,50,0.00,,,0.00,Wunderground v.1.15,2013-11-30 19:18:00,
2013-11-30 14:19:00,42.2,24.4,30.59,SSE,155,4.0,8.0,49,0.00,,,0.00,Wunderground v.1.15,2013-11-30 19:19:00,
2013-11-30 14:23:00,42.1,23.8,30.58,SSE,155,5.0,8.0,48,0.00,,,0.00,Wunderground v.1.15,2013-11-30 19:23:00,
2013-11-30 14:24:00,42.0,23.2,30.58,SE,146,5.0,9.0,47,0.00,,,0.00,Wunderground v.1.15,2013-11-30 19:24:00,
2013-11-30 14:25:00,41.9,23.6,30.58,SSE,160,5.0,9.0,48,0.00,,,0.00,Wunderground v.1.15,2013-11-30 19:25:00,
2013-11-30 14:27:00,41.8,23.5,30.58,SSE,158,5.0,9.0,48,0.00,,,0.00,Wunderground v.1.15,2013-11-30 19:27:00,
2013-11-30 14:30:00,41.7,22.9,30.58,ESE,120,6.0,6.0,47,0.00,,,0.00,Wunderground v.1.15,2013-11-30 19:30:00,
2013-11-30 14:32:00,41.6,23.8,30.58,SE,146,7.0,8.0,49,0.00,,,0.00,Wunderground v.1.15,2013-11-30 19:32:00,
2013-11-30 14:33:00,41.6,23.3,30.58,SE,145,7.0,8.0,48,0.00,,,0.00,Wunderground v.1.15,2013-11-30 19:33:00,
2013-11-30 14:34:00,41.6,23.3,30.58,South,171,6.0,8.0,48,0.00,,,0.00,Wunderground v.1.15,2013-11-30 19:34:00,
2013-11-30 14:38:00,41.7,23.4,30.58,SSE,150,6.0,8.0,48,0.00,,,0.00,Wunderground v.1.15,2013-11-30 19:38:00,
2013-11-30 14:40:00,41.7,23.9,30.58,SE,126,6.0,6.0,49,0.00,,,0.00,Wunderground v.1.15,2013-11-30 19:40:00,
2013-11-30 14:41:00,41.7,23.9,30.58,SSE,152,6.0,8.0,49,0.00,,,0.00,Wunderground v.1.15,2013-11-30 19:41:00,
2013-11-30 14:44:00,41.8,24.0,30.58,South,176,5.0,8.0,49,0.00,,,0.00,Wunderground v.1.15,2013-11-30 19:44:00,
2013-11-30 14:46:00,42.0,24.7,30.58,SSE,168,5.0,8.0,50,0.00,,,0.00,Wunderground v.1.15,2013-11-30 19:46:00,
2013-11-30 14:47:00,42.1,24.3,30.58,SSE,156,5.0,8.0,49,0.00,,,0.00,Wunderground v.1.15,2013-11-30 19:47:00,
2013-11-30 14:48:00,42.1,23.8,30.58,SE,140,5.0,8.0,48,0.00,,,0.00,Wunderground v.1.15,2013-11-30 19:48:00,
2013-11-30 14:49:00,42.0,24.2,30.58,SE,145,5.0,8.0,49,0.00,,,0.00,Wunderground v.1.15,2013-11-30 19:49:00,
2013-11-30 14:52:00,41.9,24.1,30.58,SSE,163,5.0,8.0,49,0.00,,,0.00,Wunderground v.1.15,2013-11-30 19:52:00,
2013-11-30 14:53:00,41.8,23.5,30.58,SSE,152,5.0,8.0,48,0.00,,,0.00,Wunderground v.1.15,2013-11-30 19:53:00,
2013-11-30 14:54:00,41.8,23.5,30.58,SSE,165,5.0,8.0,48,0.00,,,0.00,Wunderground v.1.15,2013-11-30 19:54:00,
2013-11-30 14:56:00,41.7,23.9,30.58,SSE,148,5.0,8.0,49,0.00,,,0.00,Wunderground v.1.15,2013-11-30 19:56:00,
2013-11-30 14:57:00,41.6,23.8,30.58,SSE,149,5.0,8.0,49,0.00,,,0.00,Wunderground v.1.15,2013-11-30 19:57:00,
2013-11-30 14:58:00,41.6,23.8,30.58,SE,133,5.0,8.0,49,0.00,,,0.00,Wunderground v.1.15,2013-11-30 19:58:00,
2013-11-30 14:59:00,41.7,23.9,30.58,ESE,123,5.0,8.0,49,0.00,,,0.00,Wunderground v.1.15,2013-11-30 19:59:00,
2013-11-30 15:00:00,41.8,25.0,30.58,ESE,115,5.0,8.0,51,0.00,,,0.00,Wunderground v.1.15,2013-11-30 20:00:00,
2013-11-30 15:03:00,41.9,24.1,30.58,SSE,152,5.0,8.0,49,0.00,,,0.00,Wunderground v.1.15,2013-11-30 20:03:00,
2013-11-30 15:04:00,42.0,24.2,30.58,SSE,161,5.0,8.0,49,0.00,,,0.00,Wunderground v.1.15,2013-11-30 20:04:00,
2013-11-30 15:05:00,42.0,24.2,30.58,SE,139,5.0,9.0,49,0.00,,,0.00,Wunderground v.1.15,2013-11-30 20:05:00,
2013-11-30 15:06:00,42.0,23.7,30.58,ESE,122,5.0,9.0,48,0.00,,,0.00,Wunderground v.1.15,2013-11-30 20:06:00,
2013-11-30 15:08:00,42.0,24.2,30.58,SSE,159,5.0,9.0,49,0.00,,,0.00,Wunderground v.1.15,2013-11-30 20:08:00,
2013-11-30 15:10:00,42.0,23.7,30.58,SSE,163,5.0,5.0,48,0.00,,,0.00,Wunderground v.1.15,2013-11-30 20:10:00,
2013-11-30 15:11:00,42.0,23.7,30.58,SE,146,5.0,7.0,48,0.00,,,0.00,Wunderground v.1.15,2013-11-30 20:11:00,
2013-11-30 15:12:00,42.0,23.7,30.58,SSE,148,5.0,8.0,48,0.00,,,0.00,Wunderground v.1.15,2013-11-30 20:12:00,
2013-11-30 15:15:00,41.8,24.0,30.57,SE,133,5.0,8.0,49,0.00,,,0.00,Wunderground v.1.15,2013-11-30 20:15:00,
2013-11-30 15:16:00,41.8,24.0,30.58,SSE,163,5.0,8.0,49,0.00,,,0.00,Wunderground v.1.15,2013-11-30 20:16:00,
2013-11-30 15:17:00,41.8,24.0,30.58,SSE,156,5.0,8.0,49,0.00,,,0.00,Wunderground v.1.15,2013-11-30 20:17:00,
2013-11-30 15:21:00,41.7,23.9,30.57,SSE,148,6.0,8.0,49,0.00,,,0.00,Wunderground v.1.15,2013-11-30 20:21:00,
2013-11-30 15:24:00,41.8,24.5,30.57,SE,135,5.0,8.0,50,0.00,,,0.00,Wunderground v.1.15,2013-11-30 20:24:00,
2013-11-30 15:26:00,41.9,24.1,30.57,SSE,151,5.0,8.0,49,0.00,,,0.00,Wunderground v.1.15,2013-11-30 20:26:00,
2013-11-30 15:27:00,41.9,24.1,30.57,SSE,147,5.0,8.0,49,0.00,,,0.00,Wunderground v.1.15,2013-11-30 20:27:00,
2013-11-30 15:28:00,41.9,24.1,30.57,SSE,155,5.0,8.0,49,0.00,,,0.00,Wunderground v.1.15,2013-11-30 20:28:00,
2013-11-30 15:29:00,41.8,24.0,30.57,SE,133,5.0,8.0,49,0.00,,,0.00,Wunderground v.1.15,2013-11-30 20:29:00,
2013-11-30 15:31:00,41.8,23.5,30.57,SSE,160,5.0,8.0,48,0.00,,,0.00,Wunderground v.1.15,2013-11-30 20:31:00,
2013-11-30 15:32:00,41.7,23.9,30.57,SSE,148,5.0,8.0,49,0.00,,,0.00,Wunderground v.1.15,2013-11-30 20:32:00,
2013-11-30 15:33:00,41.7,23.4,30.57,SSE,154,5.0,8.0,48,0.00,,,0.00,Wunderground v.1.15,2013-11-30 20:33:00,
2013-11-30 15:34:00,41.7,23.4,30.57,SE,136,5.0,8.0,48,0.00,,,0.00,Wunderground v.1.15,2013-11-30 20:34:00,
2013-11-30 15:36:00,41.6,23.3,30.57,SE,144,6.0,8.0,48,0.00,,,0.00,Wunderground v.1.15,2013-11-30 20:36:00,
2013-11-30 15:38:00,41.5,23.7,30.57,SSE,154,6.0,8.0,49,0.00,,,0.00,Wunderground v.1.15,2013-11-30 20:38:00,
2013-11-30 15:41:00,41.6,23.8,30.57,SSE,155,6.0,7.0,49,0.00,,,0.00,Wunderground v.1.15,2013-11-30 20:41:00,
2013-11-30 15:42:00,41.6,23.3,30.57,SE,144,6.0,8.0,48,0.00,,,0.00,Wunderground v.1.15,2013-11-30 20:42:00,
2013-11-30 15:43:00,41.6,23.8,30.57,SSE,165,6.0,8.0,49,0.00,,,0.00,Wunderground v.1.15,2013-11-30 20:43:00,
2013-11-30 15:44:00,41.6,23.8,30.57,SSE,148,5.0,8.0,49,0.00,,,0.00,Wunderground v.1.15,2013-11-30 20:44:00,
2013-11-30 15:46:00,41.5,23.2,30.57,SSE,157,5.0,8.0,48,0.00,,,0.00,Wunderground v.1.15,2013-11-30 20:46:00,
2013-11-30 15:49:00,41.5,23.7,30.57,SE,143,5.0,8.0,49,0.00,,,0.00,Wunderground v.1.15,2013-11-30 20:49:00,
2013-11-30 15:51:00,41.6,23.8,30.57,SSE,154,5.0,8.0,49,0.00,,,0.00,Wunderground v.1.15,2013-11-30 20:51:00,
2013-11-30 15:52:00,41.6,23.8,30.57,SSE,154,4.0,8.0,49,0.00,,,0.00,Wunderground v.1.15,2013-11-30 20:52:00,
2013-11-30 15:55:00,41.5,23.7,30.57,ESE,119,4.0,8.0,49,0.00,,,0.00,Wunderground v.1.15,2013-11-30 20:55:00,
2013-11-30 15:57:00,41.5,23.2,30.56,SSE,152,4.0,8.0,48,0.00,,,0.00,Wunderground v.1.15,2013-11-30 20:57:00,
2013-11-30 16:01:00,41.5,23.7,30.56,SE,146,4.0,8.0,49,0.00,,,0.00,Wunderground v.1.15,2013-11-30 21:01:00,
2013-11-30 16:03:00,41.5,23.7,30.56,SSE,150,4.0,8.0,49,0.00,,,0.00,Wunderground v.1.15,2013-11-30 21:03:00,
2013-11-30 16:04:00,41.4,23.6,30.57,SSE,155,4.0,8.0,49,0.00,,,0.00,Wunderground v.1.15,2013-11-30 21:04:00,
2013-11-30 16:05:00,41.4,23.6,30.56,SE,143,4.0,8.0,49,0.00,,,0.00,Wunderground v.1.15,2013-11-30 21:05:00,
2013-11-30 16:07:00,41.4,23.6,30.56,SE,140,4.0,8.0,49,0.00,,,0.00,Wunderground v.1.15,2013-11-30 21:07:00,
2013-11-30 16:08:00,41.4,23.6,30.56,SSE,152,4.0,8.0,49,0.00,,,0.00,Wunderground v.1.15,2013-11-30 21:08:00,
2013-11-30 16:12:00,41.4,24.1,30.56,SSE,152,4.0,8.0,50,0.00,,,0.00,Wunderground v.1.15,2013-11-30 21:12:00,
2013-11-30 16:13:00,41.3,23.6,30.56,SSE,155,4.0,8.0,49,0.00,,,0.00,Wunderground v.1.15,2013-11-30 21:13:00,
2013-11-30 16:14:00,41.2,23.5,30.56,SE,140,4.0,8.0,49,0.00,,,0.00,Wunderground v.1.15,2013-11-30 21:14:00,
2013-11-30 16:16:00,41.1,23.4,30.56,SE,142,4.0,8.0,49,0.00,,,0.00,Wunderground v.1.15,2013-11-30 21:16:00,
2013-11-30 16:18:00,41.1,24.3,30.56,SE,142,4.0,8.0,51,0.00,,,0.00,Wunderground v.1.15,2013-11-30 21:18:00,
2013-11-30 16:19:00,41.1,23.9,30.56,SSE,152,4.0,8.0,50,0.00,,,0.00,Wunderground v.1.15,2013-11-30 21:19:00,
2013-11-30 16:20:00,41.0,23.8,30.56,SSE,152,4.0,8.0,50,0.00,,,0.00,Wunderground v.1.15,2013-11-30 21:20:00,
2013-11-30 16:21:00,41.0,23.8,30.56,SSE,154,4.0,8.0,50,0.00,,,0.00,Wunderground v.1.15,2013-11-30 21:21:00,
2013-11-30 16:24:00,40.8,23.6,30.56,SSE,166,4.0,8.0,50,0.00,,,0.00,Wunderground v.1.15,2013-11-30 21:24:00,
2013-11-30 16:25:00,40.7,24.0,30.56,SSE,159,4.0,8.0,51,0.00,,,0.00,Wunderground v.1.15,2013-11-30 21:25:00,
2013-11-30 16:26:00,40.6,23.9,30.56,SSE,162,4.0,8.0,51,0.00,,,0.00,Wunderground v.1.15,2013-11-30 21:26:00,
2013-11-30 16:27:00,40.6,23.4,30.56,SSE,151,3.0,8.0,50,0.00,,,0.00,Wunderground v.1.15,2013-11-30 21:27:00,
2013-11-30 16:31:00,40.3,23.6,30.56,SSE,161,4.0,8.0,51,0.00,,,0.00,Wunderground v.1.15,2013-11-30 21:31:00,
2013-11-30 16:34:00,40.1,22.9,30.56,SSE,147,4.0,8.0,50,0.00,,,0.00,Wunderground v.1.15,2013-11-30 21:34:00,
2013-11-30 16:35:00,40.1,22.9,30.56,SSE,154,4.0,8.0,50,0.00,,,0.00,Wunderground v.1.15,2013-11-30 21:35:00,
2013-11-30 16:36:00,40.0,23.3,30.56,ESE,113,4.0,8.0,51,0.00,,,0.00,Wunderground v.1.15,2013-11-30 21:36:00,
2013-11-30 16:38:00,39.9,23.2,30.56,SE,126,4.0,8.0,51,0.00,,,0.00,Wunderground v.1.15,2013-11-30 21:38:00,
2013-11-30 16:40:00,39.9,23.7,30.56,ESE,121,4.0,4.0,52,0.00,,,0.00,Wunderground v.1.15,2013-11-30 21:40:00,
2013-11-30 16:41:00,39.8,23.1,30.56,ESE,121,3.0,8.0,51,0.00,,,0.00,Wunderground v.1.15,2013-11-30 21:41:00,
2013-11-30 16:42:00,39.8,23.1,30.56,ESE,121,3.0,8.0,51,0.00,,,0.00,Wunderground v.1.15,2013-11-30 21:42:00,
2013-11-30 16:43:00,39.8,23.1,30.56,ESE,121,3.0,8.0,51,0.00,,,0.00,Wunderground v.1.15,2013-11-30 21:43:00,
2013-11-30 16:46:00,39.7,23.0,30.55,ESE,121,2.0,8.0,51,0.00,,,0.00,Wunderground v.1.15,2013-11-30 21:46:00,
2013-11-30 16:47:00,39.7,23.0,30.56,ESE,121,1.0,8.0,51,0.00,,,0.00,Wunderground v.1.15,2013-11-30 21:47:00,
2013-11-30 16:48:00,39.6,22.9,30.56,ESE,121,1.0,8.0,51,0.00,,,0.00,Wunderground v.1.15,2013-11-30 21:48:00,
2013-11-30 16:49:00,39.6,23.4,30.55,SE,141,1.0,8.0,52,0.00,,,0.00,Wunderground v.1.15,2013-11-30 21:49:00,
2013-11-30 16:50:00,39.6,23.4,30.55,SE,142,1.0,8.0,52,0.00,,,0.00,Wunderground v.1.15,2013-11-30 21:50:00,
2013-11-30 16:51:00,39.5,23.3,30.55,SSE,150,1.0,8.0,52,0.00,,,0.00,Wunderground v.1.15,2013-11-30 21:51:00,
2013-11-30 16:54:00,39.4,23.2,30.55,SSE,150,2.0,8.0,52,0.00,,,0.00,Wunderground v.1.15,2013-11-30 21:54:00,
2013-11-30 16:55:00,39.3,23.1,30.55,SSE,150,2.0,8.0,52,0.00,,,0.00,Wunderground v.1.15,2013-11-30 21:55:00,
2013-11-30 16:57:00,39.3,23.1,30.55,SSE,150,2.0,8.0,52,0.00,,,0.00,Wunderground v.1.15,2013-11-30 21:57:00,
2013-11-30 17:00:00,39.1,23.4,30.55,SSE,150,2.0,2.0,53,0.00,,,0.00,Wunderground v.1.15,2013-11-30 22:00:00,
2013-11-30 17:01:00,39.1,23.4,30.55,SSE,150,2.0,8.0,53,0.00,,,0.00,Wunderground v.1.15,2013-11-30 22:01:00,
2013-11-30 17:02:00,39.0,23.3,30.55,SSE,150,1.0,8.0,53,0.00,,,0.00,Wunderground v.1.15,2013-11-30 22:02:00,
2013-11-30 17:03:00,39.0,23.3,30.55,SSE,150,1.0,8.0,53,0.00,,,0.00,Wunderground v.1.15,2013-11-30 22:03:00,
2013-11-30 17:08:00,38.7,23.9,30.55,SSE,150,1.0,8.0,55,0.00,,,0.00,Wunderground v.1.15,2013-11-30 22:08:00,
2013-11-30 17:09:00,38.6,23.4,30.55,SSE,150,1.0,8.0,54,0.00,,,0.00,Wunderground v.1.15,2013-11-30 22:09:00,
2013-11-30 17:10:00,38.6,23.4,30.55,SE,146,1.0,8.0,54,0.00,,,0.00,Wunderground v.1.15,2013-11-30 22:10:00,
2013-11-30 17:13:00,38.4,23.2,30.55,SE,130,1.0,8.0,54,0.00,,,0.00,Wunderground v.1.15,2013-11-30 22:13:00,
2013-11-30 17:15:00,38.3,23.1,30.55,SE,128,1.0,8.0,54,0.00,,,0.00,Wunderground v.1.15,2013-11-30 22:15:00,
2013-11-30 17:16:00,38.3,23.1,30.55,SE,128,1.0,8.0,54,0.00,,,0.00,Wunderground v.1.15,2013-11-30 22:16:00,
2013-11-30 17:17:00,38.3,23.1,30.55,SE,128,2.0,8.0,54,0.00,,,0.00,Wunderground v.1.15,2013-11-30 22:17:00,
2013-11-30 17:20:00,38.1,23.3,30.55,SE,128,2.0,2.0,55,0.00,,,0.00,Wunderground v.1.15,2013-11-30 22:20:00,
2013-11-30 17:21:00,38.1,23.3,30.55,SE,128,2.0,8.0,55,0.00,,,0.00,Wunderground v.1.15,2013-11-30 22:21:00,
2013-11-30 17:25:00,37.9,23.2,30.55,SE,128,1.0,8.0,55,0.00,,,0.00,Wunderground v.1.15,2013-11-30 22:25:00,
2013-11-30 17:26:00,37.8,23.1,30.55,SE,128,1.0,8.0,55,0.00,,,0.00,Wunderground v.1.15,2013-11-30 22:26:00,
2013-11-30 17:27:00,37.8,23.1,30.55,SE,128,1.0,8.0,55,0.00,,,0.00,Wunderground v.1.15,2013-11-30 22:27:00,
2013-11-30 17:28:00,37.7,23.0,30.55,SE,128,1.0,8.0,55,0.00,,,0.00,Wunderground v.1.15,2013-11-30 22:28:00,
2013-11-30 17:31:00,37.5,23.2,30.55,SE,128,1.0,8.0,56,0.00,,,0.00,Wunderground v.1.15,2013-11-30 22:31:00,
2013-11-30 17:32:00,37.4,23.1,30.55,SE,128,1.0,8.0,56,0.00,,,0.00,Wunderground v.1.15,2013-11-30 22:32:00,
2013-11-30 17:33:00,37.3,23.0,30.55,SE,140,1.0,8.0,56,0.00,,,0.00,Wunderground v.1.15,2013-11-30 22:33:00,
2013-11-30 17:36:00,37.2,22.9,30.55,SE,138,1.0,8.0,56,0.00,,,0.00,Wunderground v.1.15,2013-11-30 22:36:00,
2013-11-30 17:40:00,37.0,22.7,30.55,SE,128,1.0,8.0,56,0.00,,,0.00,Wunderground v.1.15,2013-11-30 22:40:00,
2013-11-30 17:41:00,37.0,22.7,30.55,SE,126,1.0,8.0,56,0.00,,,0.00,Wunderground v.1.15,2013-11-30 22:41:00,
2013-11-30 17:43:00,37.0,22.7,30.55,SE,126,2.0,8.0,56,0.00,,,0.00,Wunderground v.1.15,2013-11-30 22:43:00,
2013-11-30 17:44:00,37.0,22.7,30.55,ESE,123,2.0,8.0,56,0.00,,,0.00,Wunderground v.1.15,2013-11-30 22:44:00,
2013-11-30 17:47:00,36.9,22.7,30.55,ESE,113,2.0,8.0,56,0.00,,,0.00,Wunderground v.1.15,2013-11-30 22:47:00,
2013-11-30 17:50:00,36.8,22.6,30.55,ESE,115,3.0,8.0,56,0.00,,,0.00,Wunderground v.1.15,2013-11-30 22:50:00,
2013-11-30 17:51:00,36.8,22.6,30.55,ESE,115,3.0,8.0,56,0.00,,,0.00,Wunderground v.1.15,2013-11-30 22:51:00,
2013-11-30 17:53:00,36.7,22.5,30.55,ESE,115,3.0,8.0,56,0.00,,,0.00,Wunderground v.1.15,2013-11-30 22:53:00,
2013-11-30 17:54:00,36.7,22.5,30.55,ESE,115,2.0,8.0,56,0.00,,,0.00,Wunderground v.1.15,2013-11-30 22:54:00,
2013-11-30 17:57:00,36.6,22.8,30.55,ESE,115,2.0,8.0,57,0.00,,,0.00,Wunderground v.1.15,2013-11-30 22:57:00,
2013-11-30 17:58:00,36.6,22.8,30.56,ESE,114,2.0,8.0,57,0.00,,,0.00,Wunderground v.1.15,2013-11-30 22:58:00,
2013-11-30 18:01:00,36.5,22.7,30.55,ESE,114,2.0,8.0,57,0.00,,,0.00,Wunderground v.1.15,2013-11-30 23:01:00,
2013-11-30 18:02:00,36.5,22.7,30.56,ESE,114,2.0,8.0,57,0.00,,,0.00,Wunderground v.1.15,2013-11-30 23:02:00,
2013-11-30 18:03:00,36.5,22.7,30.56,ESE,114,2.0,8.0,57,0.00,,,0.00,Wunderground v.1.15,2013-11-30 23:03:00,
2013-11-30 18:07:00,36.3,22.5,30.55,ESE,114,1.0,8.0,57,0.00,,,0.00,Wunderground v.1.15,2013-11-30 23:07:00,
2013-11-30 18:08:00,36.3,22.5,30.55,ESE,114,1.0,8.0,57,0.00,,,0.00,Wunderground v.1.15,2013-11-30 23:08:00,
2013-11-30 18:09:00,36.3,22.5,30.55,ESE,114,1.0,8.0,57,0.00,,,0.00,Wunderground v.1.15,2013-11-30 23:09:00,
2013-11-30 18:11:00,36.2,22.4,30.55,ESE,114,1.0,8.0,57,0.00,,,0.00,Wunderground v.1.15,2013-11-30 23:11:00,
2013-11-30 18:14:00,36.2,22.8,30.55,SE,145,1.0,8.0,58,0.00,,,0.00,Wunderground v.1.15,2013-11-30 23:14:00,
2013-11-30 18:17:00,36.1,22.7,30.55,SE,145,1.0,8.0,58,0.00,,,0.00,Wunderground v.1.15,2013-11-30 23:17:00,
2013-11-30 18:18:00,36.0,22.6,30.55,SE,145,1.0,8.0,58,0.00,,,0.00,Wunderground v.1.15,2013-11-30 23:18:00,
2013-11-30 18:19:00,36.0,22.6,30.55,SE,145,1.0,8.0,58,0.00,,,0.00,Wunderground v.1.15,2013-11-30 23:19:00,
2013-11-30 18:20:00,35.9,22.5,30.55,SE,145,1.0,1.0,58,0.00,,,0.00,Wunderground v.1.15,2013-11-30 23:20:00,
2013-11-30 18:22:00,35.8,22.5,30.55,SE,145,1.0,8.0,58,0.00,,,0.00,Wunderground v.1.15,2013-11-30 23:22:00,
2013-11-30 18:23:00,35.8,22.5,30.55,SE,145,1.0,8.0,58,0.00,,,0.00,Wunderground v.1.15,2013-11-30 23:23:00,
2013-11-30 18:24:00,35.8,22.5,30.55,SE,145,1.0,8.0,58,0.00,,,0.00,Wunderground v.1.15,2013-11-30 23:24:00,
2013-11-30 18:25:00,35.8,22.5,30.56,SE,145,1.0,8.0,58,0.00,,,0.00,Wunderground v.1.15,2013-11-30 23:25:00,
2013-11-30 18:27:00,35.8,22.9,30.55,SE,145,0.0,8.0,59,0.00,,,0.00,Wunderground v.1.15,2013-11-30 23:27:00,
2013-11-30 18:29:00,35.7,23.2,30.56,SE,145,0.0,8.0,60,0.00,,,0.00,Wunderground v.1.15,2013-11-30 23:29:00,
2013-11-30 18:32:00,35.5,23.0,30.56,SE,145,0.0,8.0,60,0.00,,,0.00,Wunderground v.1.15,2013-11-30 23:32:00,
2013-11-30 18:33:00,35.4,22.9,30.56,SE,145,0.0,8.0,60,0.00,,,0.00,Wunderground v.1.15,2013-11-30 23:33:00,
2013-11-30 18:35:00,35.3,22.8,30.55,SE,145,0.0,8.0,60,0.00,,,0.00,Wunderground v.1.15,2013-11-30 23:35:00,
2013-11-30 18:36:00,35.2,22.7,30.56,SE,145,0.0,8.0,60,0.00,,,0.00,Wunderground v.1.15,2013-11-30 23:36:00,
2013-11-30 18:37:00,35.2,22.7,30.56,SE,145,0.0,8.0,60,0.00,,,0.00,Wunderground v.1.15,2013-11-30 23:37:00,
2013-11-30 18:39:00,35.1,23.0,30.55,SE,145,0.0,8.0,61,0.00,,,0.00,Wunderground v.1.15,2013-11-30 23:39:00,
2013-11-30 18:42:00,34.9,22.8,30.55,SE,145,0.0,8.0,61,0.00,,,0.00,Wunderground v.1.15,2013-11-30 23:42:00,
2013-11-30 18:43:00,34.9,22.8,30.55,SE,145,0.0,8.0,61,0.00,,,0.00,Wunderground v.1.15,2013-11-30 23:43:00,
2013-11-30 18:47:00,34.7,23.0,30.55,SE,145,0.0,8.0,62,0.00,,,0.00,Wunderground v.1.15,2013-11-30 23:47:00,
2013-11-30 18:48:00,34.6,22.5,30.55,SE,145,0.0,8.0,61,0.00,,,0.00,Wunderground v.1.15,2013-11-30 23:48:00,
2013-11-30 18:49:00,34.5,22.4,30.55,SE,145,0.0,8.0,61,0.00,,,0.00,Wunderground v.1.15,2013-11-30 23:49:00,
2013-11-30 18:50:00,34.4,22.7,30.55,SE,145,0.0,8.0,62,0.00,,,0.00,Wunderground v.1.15,2013-11-30 23:50:00,
2013-11-30 18:51:00,34.3,22.6,30.55,SE,145,0.0,8.0,62,0.00,,,0.00,Wunderground v.1.15,2013-11-30 23:51:00,
2013-11-30 18:55:00,33.9,22.2,30.55,SE,145,0.0,8.0,62,0.00,,,0.00,Wunderground v.1.15,2013-11-30 23:55:00,
2013-11-30 18:57:00,33.7,22.4,30.55,SE,145,0.0,8.0,63,0.00,,,0.00,Wunderground v.1.15,2013-11-30 23:57:00,
2013-11-30 18:59:00,33.4,22.1,30.55,SE,145,1.0,8.0,63,0.00,,,0.00,Wunderground v.1.15,2013-11-30 23:59:00,
2013-11-30 19:00:00,33.2,22.0,30.55,SE,145,1.0,8.0,63,0.00,,,0.00,Wunderground v.1.15,2013-12-01 00:00:00,
2013-11-30 19:02:00,32.9,22.8,30.55,SE,145,1.0,8.0,66,0.00,,,0.00,Wunderground v.1.15,2013-12-01 00:02:00,
2013-11-30 19:03:00,32.8,23.0,30.55,SE,145,1.0,8.0,67,0.00,,,0.00,Wunderground v.1.15,2013-12-01 00:03:00,
2013-11-30 19:04:00,32.7,23.3,30.55,SE,145,1.0,8.0,68,0.00,,,0.00,Wunderground v.1.15,2013-12-01 00:04:00,
2013-11-30 19:05:00,32.7,24.7,30.55,SE,145,1.0,8.0,72,0.00,,,0.00,Wunderground v.1.15,2013-12-01 00:05:00,
2013-11-30 19:06:00,32.7,24.7,30.55,SE,145,0.0,8.0,72,0.00,,,0.00,Wunderground v.1.15,2013-12-01 00:06:00,
2013-11-30 19:07:00,32.6,23.6,30.55,SE,145,0.0,8.0,69,0.00,,,0.00,Wunderground v.1.15,2013-12-01 00:07:00,
2013-11-30 19:09:00,32.5,23.1,30.55,SE,128,1.0,8.0,68,0.00,,,0.00,Wunderground v.1.15,2013-12-01 00:09:00,
2013-11-30 19:12:00,32.2,22.8,30.55,SE,128,0.0,8.0,68,0.00,,,0.00,Wunderground v.1.15,2013-12-01 00:12:00,
2013-11-30 19:13:00,32.1,22.7,30.55,SE,128,0.0,8.0,68,0.00,,,0.00,Wunderground v.1.15,2013-12-01 00:13:00,
2013-11-30 19:14:00,32.1,23.1,30.56,SE,128,0.0,8.0,69,0.00,,,0.00,Wunderground v.1.15,2013-12-01 00:14:00,
2013-11-30 19:17:00,31.9,22.9,30.56,SE,128,0.0,8.0,69,0.00,,,0.00,Wunderground v.1.15,2013-12-01 00:17:00,
2013-11-30 19:18:00,31.8,22.8,30.55,SE,128,0.0,8.0,69,0.00,,,0.00,Wunderground v.1.15,2013-12-01 00:18:00,
2013-11-30 19:19:00,31.8,23.5,30.55,SE,128,0.0,8.0,71,0.00,,,0.00,Wunderground v.1.15,2013-12-01 00:19:00,
2013-11-30 19:20:00,31.7,23.4,30.56,SE,128,0.0,8.0,71,0.00,,,0.00,Wunderground v.1.15,2013-12-01 00:20:00,
2013-11-30 19:23:00,31.5,24.5,30.56,SE,128,0.0,8.0,75,0.00,,,0.00,Wunderground v.1.15,2013-12-01 00:23:00,
2013-11-30 19:24:00,31.5,25.4,30.56,SE,128,0.0,8.0,78,0.00,,,0.00,Wunderground v.1.15,2013-12-01 00:24:00,
2013-11-30 19:26:00,31.5,24.2,30.56,SE,128,0.0,8.0,74,0.00,,,0.00,Wunderground v.1.15,2013-12-01 00:26:00,
2013-11-30 19:31:00,31.2,23.5,30.56,SE,128,0.0,8.0,73,0.00,,,0.00,Wunderground v.1.15,2013-12-01 00:31:00,
2013-11-30 19:32:00,31.1,23.5,30.56,SE,128,0.0,8.0,73,0.00,,,0.00,Wunderground v.1.15,2013-12-01 00:32:00,
2013-11-30 19:33:00,31.0,23.4,30.56,SE,128,0.0,8.0,73,0.00,,,0.00,Wunderground v.1.15,2013-12-01 00:33:00,
2013-11-30 19:35:00,30.9,23.3,30.56,SE,128,0.0,8.0,73,0.00,,,0.00,Wunderground v.1.15,2013-12-01 00:35:00,
2013-11-30 19:36:00,30.8,23.2,30.56,SE,128,0.0,8.0,73,0.00,,,0.00,Wunderground v.1.15,2013-12-01 00:36:00,
2013-11-30 19:37:00,30.7,23.1,30.56,SE,128,0.0,8.0,73,0.00,,,0.00,Wunderground v.1.15,2013-12-01 00:37:00,
2013-11-30 19:38:00,30.7,23.1,30.56,SE,128,0.0,8.0,73,0.00,,,0.00,Wunderground v.1.15,2013-12-01 00:38:00,
2013-11-30 19:39:00,30.6,23.0,30.56,SE,128,0.0,8.0,73,0.00,,,0.00,Wunderground v.1.15,2013-12-01 00:39:00,
2013-11-30 19:42:00,30.4,23.4,30.55,SE,128,0.0,8.0,75,0.00,,,0.00,Wunderground v.1.15,2013-12-01 00:42:00,
2013-11-30 19:43:00,30.3,23.3,30.55,SE,128,0.0,8.0,75,0.00,,,0.00,Wunderground v.1.15,2013-12-01 00:43:00,
2013-11-30 19:46:00,30.0,23.4,30.55,SE,128,0.0,8.0,76,0.00,,,0.00,Wunderground v.1.15,2013-12-01 00:46:00,
2013-11-30 19:47:00,29.9,23.3,30.55,SE,128,0.0,8.0,76,0.00,,,0.00,Wunderground v.1.15,2013-12-01 00:47:00,
2013-11-30 19:50:00,29.6,23.0,30.55,SE,128,0.0,8.0,76,0.00,,,0.00,Wunderground v.1.15,2013-12-01 00:50:00,
2013-11-30 19:52:00,29.5,22.9,30.55,SE,128,0.0,8.0,76,0.00,,,0.00,Wunderground v.1.15,2013-12-01 00:52:00,
2013-11-30 19:53:00,29.4,22.8,30.55,SE,128,0.0,8.0,76,0.00,,,0.00,Wunderground v.1.15,2013-12-01 00:53:00,
2013-11-30 19:54:00,29.4,23.1,30.55,SE,128,0.0,8.0,77,0.00,,,0.00,Wunderground v.1.15,2013-12-01 00:54:00,
2013-11-30 19:55:00,29.3,23.3,30.55,SE,128,0.0,8.0,78,0.00,,,0.00,Wunderground v.1.15,2013-12-01 00:55:00,
2013-11-30 19:58:00,29.3,23.0,30.55,SE,128,0.0,8.0,77,0.00,,,0.00,Wunderground v.1.15,2013-12-01 00:58:00,
2013-11-30 20:00:00,29.2,22.9,30.55,SE,128,0.0,8.0,77,0.00,,,0.00,Wunderground v.1.15,2013-12-01 01:00:00,
2013-11-30 20:01:00,29.2,23.2,30.55,SE,128,0.0,8.0,78,0.00,,,0.00,Wunderground v.1.15,2013-12-01 01:01:00,
2013-11-30 20:02:00,29.1,22.8,30.55,SE,128,0.0,8.0,77,0.00,,,0.00,Wunderground v.1.15,2013-12-01 01:02:00,
2013-11-30 20:04:00,29.0,23.0,30.55,SE,128,0.0,8.0,78,0.00,,,0.00,Wunderground v.1.15,2013-12-01 01:04:00,
2013-11-30 20:07:00,29.0,23.0,30.56,SE,128,0.0,8.0,78,0.00,,,0.00,Wunderground v.1.15,2013-12-01 01:07:00,
2013-11-30 20:08:00,29.0,23.0,30.55,SE,128,0.0,8.0,78,0.00,,,0.00,Wunderground v.1.15,2013-12-01 01:08:00,
2013-11-30 20:11:00,28.9,22.6,30.55,SE,128,0.0,8.0,77,0.00,,,0.00,Wunderground v.1.15,2013-12-01 01:11:00,
2013-11-30 20:12:00,28.9,22.6,30.55,SE,128,0.0,8.0,77,0.00,,,0.00,Wunderground v.1.15,2013-12-01 01:12:00,
2013-11-30 20:13:00,28.9,22.6,30.55,SE,128,0.0,8.0,77,0.00,,,0.00,Wunderground v.1.15,2013-12-01 01:13:00,
2013-11-30 20:14:00,28.9,22.9,30.55,SE,128,0.0,8.0,78,0.00,,,0.00,Wunderground v.1.15,2013-12-01 01:14:00,
2013-11-30 20:15:00,28.8,22.8,30.55,SE,128,0.0,8.0,78,0.00,,,0.00,Wunderground v.1.15,2013-12-01 01:15:00,
2013-11-30 20:16:00,28.8,22.8,30.55,SE,128,0.0,8.0,78,0.00,,,0.00,Wunderground v.1.15,2013-12-01 01:16:00,
2013-11-30 20:19:00,28.8,23.7,30.55,SE,128,0.0,8.0,81,0.00,,,0.00,Wunderground v.1.15,2013-12-01 01:19:00,
2013-11-30 20:22:00,28.8,23.1,30.55,SE,128,0.0,8.0,79,0.00,,,0.00,Wunderground v.1.15,2013-12-01 01:22:00,
2013-11-30 20:23:00,28.8,23.1,30.55,SE,128,0.0,8.0,79,0.00,,,0.00,Wunderground v.1.15,2013-12-01 01:23:00,
2013-11-30 20:25:00,28.7,23.0,30.55,SE,128,0.0,8.0,79,0.00,,,0.00,Wunderground v.1.15,2013-12-01 01:25:00,
2013-11-30 20:26:00,28.6,22.9,30.55,SE,128,0.0,8.0,79,0.00,,,0.00,Wunderground v.1.15,2013-12-01 01:26:00,
2013-11-30 20:27:00,28.6,22.9,30.55,SE,128,0.0,8.0,79,0.00,,,0.00,Wunderground v.1.15,2013-12-01 01:27:00,
2013-11-30 20:31:00,28.4,22.7,30.55,SE,128,0.0,8.0,79,0.00,,,0.00,Wunderground v.1.15,2013-12-01 01:31:00,
2013-11-30 20:32:00,28.4,22.7,30.55,SE,128,1.0,8.0,79,0.00,,,0.00,Wunderground v.1.15,2013-12-01 01:32:00,
2013-11-30 20:34:00,28.3,22.6,30.55,SE,128,1.0,8.0,79,0.00,,,0.00,Wunderground v.1.15,2013-12-01 01:34:00,
2013-11-30 20:37:00,28.2,22.8,30.55,SE,128,0.0,8.0,80,0.00,,,0.00,Wunderground v.1.15,2013-12-01 01:37:00,
2013-11-30 20:39:00,28.1,22.7,30.55,SE,128,0.0,8.0,80,0.00,,,0.00,Wunderground v.1.15,2013-12-01 01:39:00,
2013-11-30 20:40:00,28.0,22.6,30.55,SE,128,0.0,8.0,80,0.00,,,0.00,Wunderground v.1.15,2013-12-01 01:40:00,
2013-11-30 20:42:00,27.9,22.5,30.55,SE,128,0.0,8.0,80,0.00,,,0.00,Wunderground v.1.15,2013-12-01 01:42:00,
2013-11-30 20:44:00,27.8,22.7,30.55,SE,128,0.0,8.0,81,0.00,,,0.00,Wunderground v.1.15,2013-12-01 01:44:00,
2013-11-30 20:47:00,27.8,22.7,30.55,SE,128,0.0,8.0,81,0.00,,,0.00,Wunderground v.1.15,2013-12-01 01:47:00,
2013-11-30 20:48:00,27.7,22.9,30.55,SE,128,0.0,8.0,82,0.00,,,0.00,Wunderground v.1.15,2013-12-01 01:48:00,
2013-11-30 20:51:00,27.8,23.6,30.54,SE,128,0.0,8.0,84,0.00,,,0.00,Wunderground v.1.15,2013-12-01 01:51:00,
2013-11-30 20:52:00,27.8,23.9,30.55,SE,128,0.0,8.0,85,0.00,,,0.00,Wunderground v.1.15,2013-12-01 01:52:00,
2013-11-30 20:54:00,27.8,23.3,30.54,SE,128,0.0,8.0,83,0.00,,,0.00,Wunderground v.1.15,2013-12-01 01:54:00,
2013-11-30 20:55:00,27.8,23.3,30.54,SE,128,0.0,8.0,83,0.00,,,0.00,Wunderground v.1.15,2013-12-01 01:55:00,
2013-11-30 20:57:00,27.7,22.9,30.54,SE,128,0.0,8.0,82,0.00,,,0.00,Wunderground v.1.15,2013-12-01 01:57:00,
2013-11-30 21:01:00,27.6,22.8,30.54,SE,128,0.0,8.0,82,0.00,,,0.00,Wunderground v.1.15,2013-12-01 02:01:00,
2013-11-30 21:02:00,27.6,22.8,30.54,SE,128,0.0,8.0,82,0.00,,,0.00,Wunderground v.1.15,2013-12-01 02:02:00,
2013-11-30 21:03:00,27.6,23.1,30.54,SE,128,0.0,8.0,83,0.00,,,0.00,Wunderground v.1.15,2013-12-01 02:03:00,
2013-11-30 21:04:00,27.6,23.1,30.54,SE,128,0.0,8.0,83,0.00,,,0.00,Wunderground v.1.15,2013-12-01 02:04:00,
2013-11-30 21:09:00,27.7,23.5,30.55,SE,128,0.0,8.0,84,0.00,,,0.00,Wunderground v.1.15,2013-12-01 02:09:00,
2013-11-30 21:10:00,27.7,23.2,30.54,SE,128,0.0,8.0,83,0.00,,,0.00,Wunderground v.1.15,2013-12-01 02:10:00,
2013-11-30 21:12:00,27.6,23.1,30.55,SE,128,0.0,8.0,83,0.00,,,0.00,Wunderground v.1.15,2013-12-01 02:12:00,
2013-11-30 21:13:00,27.5,23.0,30.55,SE,128,0.0,8.0,83,0.00,,,0.00,Wunderground v.1.15,2013-12-01 02:13:00,
2013-11-30 21:15:00,27.4,23.2,30.55,SE,128,0.0,8.0,84,0.00,,,0.00,Wunderground v.1.15,2013-12-01 02:15:00,
2013-11-30 21:19:00,27.1,22.9,30.54,SE,128,0.0,8.0,84,0.00,,,0.00,Wunderground v.1.15,2013-12-01 02:19:00,
2013-11-30 21:20:00,27.1,23.2,30.54,SE,128,0.0,8.0,85,0.00,,,0.00,Wunderground v.1.15,2013-12-01 02:20:00,
2013-11-30 21:21:00,27.0,23.1,30.54,SE,128,0.0,8.0,85,0.00,,,0.00,Wunderground v.1.15,2013-12-01 02:21:00,
2013-11-30 21:25:00,26.8,22.9,30.54,SE,128,0.0,8.0,85,0.00,,,0.00,Wunderground v.1.15,2013-12-01 02:25:00,
2013-11-30 21:26:00,26.9,23.0,30.54,SE,128,0.0,8.0,85,0.00,,,0.00,Wunderground v.1.15,2013-12-01 02:26:00,
2013-11-30 21:28:00,26.9,23.5,30.54,SE,128,0.0,8.0,87,0.00,,,0.00,Wunderground v.1.15,2013-12-01 02:28:00,
2013-11-30 21:30:00,26.9,23.3,30.54,SE,128,0.0,8.0,86,0.00,,,0.00,Wunderground v.1.15,2013-12-01 02:30:00,
2013-11-30 21:31:00,26.8,23.2,30.54,SE,128,0.0,8.0,86,0.00,,,0.00,Wunderground v.1.15,2013-12-01 02:31:00,
2013-11-30 21:35:00,26.7,23.1,30.54,SE,128,0.0,8.0,86,0.00,,,0.00,Wunderground v.1.15,2013-12-01 02:35:00,
2013-11-30 21:36:00,26.7,23.1,30.54,SE,128,0.0,8.0,86,0.00,,,0.00,Wunderground v.1.15,2013-12-01 02:36:00,
2013-11-30 21:37:00,26.7,23.1,30.54,SE,128,0.0,8.0,86,0.00,,,0.00,Wunderground v.1.15,2013-12-01 02:37:00,
2013-11-30 21:38:00,26.7,23.1,30.54,SE,128,0.0,8.0,86,0.00,,,0.00,Wunderground v.1.15,2013-12-01 02:38:00,
2013-11-30 21:42:00,26.6,23.0,30.54,SE,128,0.0,8.0,86,0.00,,,0.00,Wunderground v.1.15,2013-12-01 02:42:00,
2013-11-30 21:45:00,26.7,23.6,30.54,SE,128,0.0,8.0,88,0.00,,,0.00,Wunderground v.1.15,2013-12-01 02:45:00,
2013-11-30 21:46:00,26.8,24.0,30.54,SE,128,0.0,8.0,89,0.00,,,0.00,Wunderground v.1.15,2013-12-01 02:46:00,
2013-11-30 21:48:00,26.9,24.1,30.54,SE,128,0.0,8.0,89,0.00,,,0.00,Wunderground v.1.15,2013-12-01 02:48:00,
2013-11-30 21:49:00,26.9,24.1,30.53,SE,128,0.0,8.0,89,0.00,,,0.00,Wunderground v.1.15,2013-12-01 02:49:00,
2013-11-30 21:50:00,27.0,24.5,30.54,SE,128,0.0,8.0,90,0.00,,,0.00,Wunderground v.1.15,2013-12-01 02:50:00,
2013-11-30 21:52:00,27.1,24.6,30.54,SE,128,0.0,8.0,90,0.00,,,0.00,Wunderground v.1.15,2013-12-01 02:52:00,
2013-11-30 21:54:00,27.1,24.0,30.54,SE,128,0.0,8.0,88,0.00,,,0.00,Wunderground v.1.15,2013-12-01 02:54:00,
2013-11-30 21:55:00,27.1,23.7,30.54,SE,128,0.0,8.0,87,0.00,,,0.00,Wunderground v.1.15,2013-12-01 02:55:00,
2013-11-30 21:56:00,27.1,23.5,30.54,SE,128,0.0,8.0,86,0.00,,,0.00,Wunderground v.1.15,2013-12-01 02:56:00,
2013-11-30 22:01:00,26.9,23.0,30.53,SE,128,0.0,8.0,85,0.00,,,0.00,Wunderground v.1.15,2013-12-01 03:01:00,
2013-11-30 22:02:00,26.9,23.0,30.54,SE,128,0.0,8.0,85,0.00,,,0.00,Wunderground v.1.15,2013-12-01 03:02:00,
2013-11-30 22:03:00,26.8,22.9,30.54,SE,128,0.0,8.0,85,0.00,,,0.00,Wunderground v.1.15,2013-12-01 03:03:00,
2013-11-30 22:07:00,26.6,22.7,30.53,SE,128,0.0,8.0,85,0.00,,,0.00,Wunderground v.1.15,2013-12-01 03:07:00,
2013-11-30 22:08:00,26.6,22.7,30.53,SE,128,0.0,8.0,85,0.00,,,0.00,Wunderground v.1.15,2013-12-01 03:08:00,
2013-11-30 22:09:00,26.5,22.6,30.53,SE,128,0.0,8.0,85,0.00,,,0.00,Wunderground v.1.15,2013-12-01 03:09:00,
2013-11-30 22:12:00,26.5,22.9,30.53,SE,128,0.0,8.0,86,0.00,,,0.00,Wunderground v.1.15,2013-12-01 03:12:00,
2013-11-30 22:14:00,26.6,23.3,30.54,SE,128,0.0,8.0,87,0.00,,,0.00,Wunderground v.1.15,2013-12-01 03:14:00,
2013-11-30 22:17:00,26.6,23.5,30.54,SE,128,0.0,8.0,88,0.00,,,0.00,Wunderground v.1.15,2013-12-01 03:17:00,
2013-11-30 22:18:00,26.7,23.6,30.54,SE,128,0.0,8.0,88,0.00,,,0.00,Wunderground v.1.15,2013-12-01 03:18:00,
2013-11-30 22:20:00,26.7,23.9,30.53,SE,128,0.0,8.0,89,0.00,,,0.00,Wunderground v.1.15,2013-12-01 03:20:00,
2013-11-30 22:23:00,26.7,23.6,30.53,SE,128,0.0,8.0,88,0.00,,,0.00,Wunderground v.1.15,2013-12-01 03:23:00,
2013-11-30 22:24:00,26.6,23.3,30.53,SE,128,0.0,8.0,87,0.00,,,0.00,Wunderground v.1.15,2013-12-01 03:24:00,
2013-11-30 22:25:00,26.5,23.2,30.53,SE,128,0.0,8.0,87,0.00,,,0.00,Wunderground v.1.15,2013-12-01 03:25:00,
2013-11-30 22:26:00,26.5,23.2,30.53,SE,128,0.0,8.0,87,0.00,,,0.00,Wunderground v.1.15,2013-12-01 03:26:00,
2013-11-30 22:28:00,26.3,23.0,30.53,SE,128,0.0,8.0,87,0.00,,,0.00,Wunderground v.1.15,2013-12-01 03:28:00,
2013-11-30 22:30:00,26.2,22.9,30.53,SE,128,0.0,8.0,87,0.00,,,0.00,Wunderground v.1.15,2013-12-01 03:30:00,
2013-11-30 22:31:00,26.2,22.6,30.53,SE,128,0.0,8.0,86,0.00,,,0.00,Wunderground v.1.15,2013-12-01 03:31:00,
2013-11-30 22:32:00,26.1,22.5,30.53,SE,128,0.0,8.0,86,0.00,,,0.00,Wunderground v.1.15,2013-12-01 03:32:00,
2013-11-30 22:37:00,25.9,22.3,30.53,SE,128,0.0,8.0,86,0.00,,,0.00,Wunderground v.1.15,2013-12-01 03:37:00,
2013-11-30 22:38:00,25.9,22.6,30.53,SE,128,0.0,8.0,87,0.00,,,0.00,Wunderground v.1.15,2013-12-01 03:38:00,
2013-11-30 22:40:00,25.8,22.5,30.53,SE,128,0.0,8.0,87,0.00,,,0.00,Wunderground v.1.15,2013-12-01 03:40:00,
2013-11-30 22:44:00,25.7,22.4,30.53,SE,128,0.0,8.0,87,0.00,,,0.00,Wunderground v.1.15,2013-12-01 03:44:00,
2013-11-30 22:45:00,25.7,22.4,30.53,SE,128,0.0,8.0,87,0.00,,,0.00,Wunderground v.1.15,2013-12-01 03:45:00,
2013-11-30 22:48:00,25.6,22.3,30.53,SE,128,0.0,8.0,87,0.00,,,0.00,Wunderground v.1.15,2013-12-01 03:48:00,
2013-11-30 22:50:00,25.6,22.5,30.53,SE,128,0.0,8.0,88,0.00,,,0.00,Wunderground v.1.15,2013-12-01 03:50:00,
2013-11-30 22:51:00,25.6,22.5,30.53,SE,128,0.0,8.0,88,0.00,,,0.00,Wunderground v.1.15,2013-12-01 03:51:00,
2013-11-30 22:52:00,25.6,22.5,30.53,SE,128,0.0,8.0,88,0.00,,,0.00,Wunderground v.1.15,2013-12-01 03:52:00,
2013-11-30 22:55:00,25.6,23.1,30.53,SE,128,0.0,8.0,90,0.00,,,0.00,Wunderground v.1.15,2013-12-01 03:55:00,
2013-11-30 22:56:00,25.7,23.2,30.53,SE,128,0.0,8.0,90,0.00,,,0.00,Wunderground v.1.15,2013-12-01 03:56:00,
2013-11-30 22:58:00,25.6,22.8,30.53,SE,128,0.0,8.0,89,0.00,,,0.00,Wunderground v.1.15,2013-12-01 03:58:00,
2013-11-30 23:03:00,25.6,22.8,30.53,SE,128,0.0,1.0,89,0.00,,,0.00,Wunderground v.1.15,2013-12-01 04:03:00,
2013-11-30 23:04:00,25.5,22.7,30.53,SE,128,0.0,1.0,89,0.00,,,0.00,Wunderground v.1.15,2013-12-01 04:04:00,
2013-11-30 23:05:00,25.6,22.8,30.53,SE,128,0.0,1.0,89,0.00,,,0.00,Wunderground v.1.15,2013-12-01 04:05:00,
2013-11-30 23:06:00,25.6,22.8,30.53,SE,128,0.0,1.0,89,0.00,,,0.00,Wunderground v.1.15,2013-12-01 04:06:00,
2013-11-30 23:07:00,25.6,22.8,30.53,SE,128,0.0,1.0,89,0.00,,,0.00,Wunderground v.1.15,2013-12-01 04:07:00,
2013-11-30 23:11:00,25.8,23.0,30.53,SE,128,0.0,1.0,89,0.00,,,0.00,Wunderground v.1.15,2013-12-01 04:11:00,
2013-11-30 23:12:00,25.8,22.7,30.52,SE,128,0.0,1.0,88,0.00,,,0.00,Wunderground v.1.15,2013-12-01 04:12:00,
2013-11-30 23:14:00,26.0,23.2,30.52,SE,128,0.0,1.0,89,0.00,,,0.00,Wunderground v.1.15,2013-12-01 04:14:00,
2013-11-30 23:15:00,26.0,23.2,30.52,SE,128,0.0,1.0,89,0.00,,,0.00,Wunderground v.1.15,2013-12-01 04:15:00,
2013-11-30 23:16:00,26.1,23.3,30.52,SE,128,0.0,1.0,89,0.00,,,0.00,Wunderground v.1.15,2013-12-01 04:16:00,
2013-11-30 23:17:00,26.1,23.0,30.52,SE,128,0.0,1.0,88,0.00,,,0.00,Wunderground v.1.15,2013-12-01 04:17:00,
2013-11-30 23:18:00,26.1,23.0,30.52,SE,128,0.0,2.0,88,0.00,,,0.00,Wunderground v.1.15,2013-12-01 04:18:00,
2013-11-30 23:22:00,26.2,23.4,30.52,SE,128,0.0,0.0,89,0.00,,,0.00,Wunderground v.1.15,2013-12-01 04:22:00,
2013-11-30 23:23:00,26.2,23.1,30.52,SE,128,0.0,0.0,88,0.00,,,0.00,Wunderground v.1.15,2013-12-01 04:23:00,
2013-11-30 23:25:00,26.3,23.5,30.52,SE,128,0.0,0.0,89,0.00,,,0.00,Wunderground v.1.15,2013-12-01 04:25:00,
2013-11-30 23:26:00,26.3,23.5,30.52,SE,128,0.0,0.0,89,0.00,,,0.00,Wunderground v.1.15,2013-12-01 04:26:00,
2013-11-30 23:27:00,26.3,23.5,30.52,SE,128,0.0,0.0,89,0.00,,,0.00,Wunderground v.1.15,2013-12-01 04:27:00,
2013-11-30 23:28:00,26.3,23.5,30.52,SE,128,0.0,0.0,89,0.00,,,0.00,Wunderground v.1.15,2013-12-01 04:28:00,
2013-11-30 23:32:00,26.6,24.1,30.52,SE,128,0.0,1.0,90,0.00,,,0.00,Wunderground v.1.15,2013-12-01 04:32:00,
2013-11-30 23:33:00,26.6,24.1,30.51,SE,128,0.0,1.0,90,0.00,,,0.00,Wunderground v.1.15,2013-12-01 04:33:00,
2013-11-30 23:34:00,26.6,24.1,30.51,SE,128,0.0,1.0,90,0.00,,,0.00,Wunderground v.1.15,2013-12-01 04:34:00,
2013-11-30 23:36:00,26.7,23.9,30.51,SE,128,0.0,1.0,89,0.00,,,0.00,Wunderground v.1.15,2013-12-01 04:36:00,
2013-11-30 23:39:00,26.7,23.9,30.51,SE,128,0.0,1.0,89,0.00,,,0.00,Wunderground v.1.15,2013-12-01 04:39:00,
2013-11-30 23:42:00,26.8,24.0,30.51,SE,128,0.0,1.0,89,0.00,,,0.00,Wunderground v.1.15,2013-12-01 04:42:00,
2013-11-30 23:44:00,27.0,24.5,30.51,SE,128,0.0,1.0,90,0.00,,,0.00,Wunderground v.1.15,2013-12-01 04:44:00,
2013-11-30 23:45:00,27.0,24.5,30.51,SE,128,0.0,1.0,90,0.00,,,0.00,Wunderground v.1.15,2013-12-01 04:45:00,
2013-11-30 23:48:00,27.2,24.4,30.51,SE,128,0.0,1.0,89,0.00,,,0.00,Wunderground v.1.15,2013-12-01 04:48:00,
2013-11-30 23:49:00,27.3,24.8,30.51,SE,128,0.0,1.0,90,0.00,,,0.00,Wunderground v.1.15,2013-12-01 04:49:00,
2013-11-30 23:53:00,27.4,24.9,30.51,SE,128,1.0,1.0,90,0.00,,,0.00,Wunderground v.1.15,2013-12-01 04:53:00,
2013-11-30 23:54:00,27.4,24.9,30.51,SE,128,1.0,1.0,90,0.00,,,0.00,Wunderground v.1.15,2013-12-01 04:54:00,
2013-11-30 23:55:00,27.4,24.9,30.51,SE,128,1.0,1.0,90,0.00,,,0.00,Wunderground v.1.15,2013-12-01 04:55:00,
2013-11-30 23:57:00,27.5,25.0,30.51,SE,128,1.0,1.0,90,0.00,,,0.00,Wunderground v.1.15,2013-12-01 04:57:00,
2013-11-30 23:59:00,27.6,25.3,30.51,SE,128,0.0,1.0,91,0.00,,,0.00,Wunderground v.1.15,2013-12-01 04:59:00,